Wetterdaten: Samstag, 16.03.2013
Datum Zeit Temp. Aussen +5cm Feuchte Auss Luftdruck Regen Sonnenschein Regendauer UV Solar Windben
16.03.2013 00:00 2,2 C 0,1 C 77 % 1012,7 hPa 0,0 l/m 0 min 0 min 0,0 UV-I 0 W/m 12,9 km/h (3 Bft)
16.03.2013 00:02 2,2 C 0,1 C 77 % 1012,7 hPa 0,0 l/m 0 min 0 min 0,0 UV-I 0 W/m 12,9 km/h (3 Bft)
16.03.2013 00:06 2,2 C 0,1 C 77 % 1012,6 hPa 0,0 l/m 0 min 0 min 0,0 UV-I 0 W/m 18,0 km/h (3 Bft)
16.03.2013 00:08 2,2 C 0,1 C 77 % 1012,6 hPa 0,0 l/m 0 min 0 min 0,0 UV-I 0 W/m 10,3 km/h (2 Bft)
16.03.2013 00:10 2,2 C 0,1 C 78 % 1012,6 hPa 0,0 l/m 0 min 0 min 0,0 UV-I 0 W/m 10,3 km/h (2 Bft)
16.03.2013 00:12 2,2 C 0,1 C 78 % 1012,6 hPa 0,0 l/m 0 min 0 min 0,0 UV-I 0 W/m 12,9 km/h (3 Bft)
16.03.2013 00:14 2,1 C 0,1 C 78 % 1012,6 hPa 0,0 l/m 0 min 0 min 0,0 UV-I 0 W/m 12,9 km/h (3 Bft)
16.03.2013 00:16 2,1 C 0,1 C 78 % 1012,6 hPa 0,0 l/m 0 min 0 min 0,0 UV-I 0 W/m 7,7 km/h (2 Bft)
16.03.2013 00:18 2,1 C 0,1 C 78 % 1012,6 hPa 0,0 l/m 0 min 0 min 0,0 UV-I 0 W/m 12,9 km/h (3 Bft)
16.03.2013 00:20 2,1 C 0,1 C 78 % 1012,6 hPa 0,0 l/m 0 min 0 min 0,0 UV-I 0 W/m 15,4 km/h (3 Bft)
16.03.2013 00:22 2,1 C 0,1 C 78 % 1012,6 hPa 0,0 l/m 0 min 0 min 0,0 UV-I 0 W/m 20,6 km/h (4 Bft)
16.03.2013 00:24 2,1 C 0,1 C 79 % 1012,6 hPa 0,0 l/m 0 min 0 min 0,0 UV-I 0 W/m 10,3 km/h (2 Bft)
16.03.2013 00:26 2,1 C 0,1 C 79 % 1012,6 hPa 0,0 l/m 0 min 0 min 0,0 UV-I 0 W/m 7,7 km/h (2 Bft)
16.03.2013 00:28 2,0 C 0,1 C 79 % 1012,6 hPa 0,0 l/m 0 min 0 min 0,0 UV-I 0 W/m 12,9 km/h (3 Bft)
16.03.2013 00:30 2,0 C 0,1 C 79 % 1012,5 hPa 0,0 l/m 0 min 0 min 0,0 UV-I 0 W/m 12,9 km/h (3 Bft)
16.03.2013 00:32 2,0 C 0,1 C 79 % 1012,6 hPa 0,0 l/m 0 min 0 min 0,0 UV-I 0 W/m 15,4 km/h (3 Bft)
16.03.2013 00:34 1,9 C 0,1 C 79 % 1012,6 hPa 0,0 l/m 0 min 0 min 0,0 UV-I 0 W/m 18,0 km/h (3 Bft)
16.03.2013 00:36 1,9 C 0,1 C 79 % 1012,6 hPa 0,0 l/m 0 min 0 min 0,0 UV-I 0 W/m 20,6 km/h (4 Bft)
16.03.2013 00:38 1,9 C 0,1 C 79 % 1012,6 hPa 0,0 l/m 0 min 0 min 0,0 UV-I 0 W/m 12,9 km/h (3 Bft)
16.03.2013 00:40 1,9 C 0,1 C 80 % 1012,6 hPa 0,0 l/m 0 min 0 min 0,0 UV-I 0 W/m 15,4 km/h (3 Bft)
16.03.2013 00:42 1,9 C 0,1 C 80 % 1012,5 hPa 0,0 l/m 0 min 0 min 0,0 UV-I 0 W/m 12,9 km/h (3 Bft)
16.03.2013 00:44 1,9 C 0,1 C 80 % 1012,5 hPa 0,0 l/m 0 min 0 min 0,0 UV-I 0 W/m 15,4 km/h (3 Bft)
16.03.2013 00:46 1,9 C 0,1 C 80 % 1012,5 hPa 0,0 l/m 0 min 0 min 0,0 UV-I 0 W/m 12,9 km/h (3 Bft)
16.03.2013 00:48 1,9 C 0,1 C 80 % 1012,5 hPa 0,0 l/m 0 min 0 min 0,0 UV-I 0 W/m 12,9 km/h (3 Bft)
16.03.2013 00:50 1,9 C 0,1 C 80 % 1012,5 hPa 0,0 l/m 0 min 0 min 0,0 UV-I 0 W/m 20,6 km/h (4 Bft)
16.03.2013 00:52 1,8 C 0,1 C 80 % 1012,5 hPa 0,0 l/m 0 min 0 min 0,0 UV-I 0 W/m 15,4 km/h (3 Bft)
16.03.2013 00:54 1,8 C 0,1 C 80 % 1012,5 hPa 0,0 l/m 0 min 0 min 0,0 UV-I 0 W/m 18,0 km/h (3 Bft)
16.03.2013 00:56 1,8 C 0,1 C 80 % 1012,5 hPa 0,0 l/m 0 min 0 min 0,0 UV-I 0 W/m 10,3 km/h (2 Bft)
16.03.2013 00:58 1,8 C 0,1 C 80 % 1012,5 hPa 0,0 l/m 0 min 0 min 0,0 UV-I 0 W/m 10,3 km/h (2 Bft)
16.03.2013 01:00 1,8 C 0,1 C 81 % 1012,5 hPa 0,0 l/m 0 min 0 min 0,0 UV-I 0 W/m 10,3 km/h (2 Bft)
16.03.2013 01:02 1,8 C 0,1 C 81 % 1012,5 hPa 0,0 l/m 0 min 0 min 0,0 UV-I 0 W/m 15,4 km/h (3 Bft)
16.03.2013 01:04 1,8 C 0,1 C 81 % 1012,5 hPa 0,0 l/m 0 min 0 min 0,0 UV-I 0 W/m 10,3 km/h (2 Bft)
16.03.2013 01:06 1,8 C 0,1 C 81 % 1012,5 hPa 0,0 l/m 0 min 0 min 0,0 UV-I 0 W/m 10,3 km/h (2 Bft)
16.03.2013 01:08 1,8 C 0,1 C 81 % 1012,5 hPa 0,0 l/m 0 min 0 min 0,0 UV-I 0 W/m 7,7 km/h (2 Bft)
16.03.2013 01:10 1,8 C 0,1 C 81 % 1012,5 hPa 0,0 l/m 0 min 0 min 0,0 UV-I 0 W/m 7,7 km/h (2 Bft)
16.03.2013 01:12 1,8 C 0,1 C 81 % 1012,5 hPa 0,0 l/m 0 min 0 min 0,0 UV-I 0 W/m 7,7 km/h (2 Bft)
16.03.2013 01:14 1,8 C 0,1 C 81 % 1012,5 hPa 0,0 l/m 0 min 0 min 0,0 UV-I 0 W/m 7,7 km/h (2 Bft)
16.03.2013 01:16 1,8 C 0,1 C 81 % 1012,5 hPa 0,0 l/m 0 min 0 min 0,0 UV-I 0 W/m 0,0 km/h (0 Bft)
16.03.2013 01:18 1,8 C 0,1 C 81 % 1012,5 hPa 0,0 l/m 0 min 0 min 0,0 UV-I 0 W/m 5,1 km/h (1 Bft)
16.03.2013 01:20 1,8 C 0,1 C 81 % 1012,5 hPa 0,0 l/m 0 min 0 min 0,0 UV-I 0 W/m 5,1 km/h (1 Bft)
16.03.2013 01:22 1,8 C 0,1 C 81 % 1012,5 hPa 0,0 l/m 0 min 0 min 0,0 UV-I 0 W/m 5,1 km/h (1 Bft)
16.03.2013 01:24 1,8 C 0,1 C 81 % 1012,5 hPa 0,0 l/m 0 min 0 min 0,0 UV-I 0 W/m 2,6 km/h (1 Bft)
16.03.2013 01:26 1,8 C 0,1 C 81 % 1012,5 hPa 0,0 l/m 0 min 0 min 0,0 UV-I 0 W/m 0,0 km/h (0 Bft)
16.03.2013 01:28 1,8 C 0,1 C 81 % 1012,5 hPa 0,0 l/m 0 min 0 min 0,0 UV-I 0 W/m 0,0 km/h (0 Bft)
16.03.2013 01:30 1,8 C 0,1 C 81 % 1012,4 hPa 0,0 l/m 0 min 0 min 0,0 UV-I 0 W/m 5,1 km/h (1 Bft)
16.03.2013 01:32 1,8 C 0,1 C 81 % 1012,3 hPa 0,0 l/m 0 min 0 min 0,0 UV-I 0 W/m 10,3 km/h (2 Bft)
16.03.2013 01:34 1,8 C 0,1 C 81 % 1012,2 hPa 0,0 l/m 0 min 0 min 0,0 UV-I 0 W/m 15,4 km/h (3 Bft)
16.03.2013 01:36 1,8 C 0,1 C 81 % 1012,3 hPa 0,0 l/m 0 min 0 min 0,0 UV-I 0 W/m 5,1 km/h (1 Bft)
16.03.2013 01:38 1,8 C 0,1 C 81 % 1012,3 hPa 0,0 l/m 0 min 0 min 0,0 UV-I 0 W/m 5,1 km/h (1 Bft)
16.03.2013 01:40 1,8 C 0,1 C 81 % 1012,2 hPa 0,0 l/m 0 min 0 min 0,0 UV-I 0 W/m 0,0 km/h (0 Bft)
16.03.2013 01:42 1,8 C 0,1 C 82 % 1012,2 hPa 0,0 l/m 0 min 0 min 0,0 UV-I 0 W/m 12,9 km/h (3 Bft)
16.03.2013 01:44 1,8 C 0,1 C 82 % 1012,1 hPa 0,0 l/m 0 min 0 min 0,0 UV-I 0 W/m 10,3 km/h (2 Bft)
16.03.2013 01:46 1,8 C 0,1 C 82 % 1012,1 hPa 0,0 l/m 0 min 0 min 0,0 UV-I 0 W/m 7,7 km/h (2 Bft)
16.03.2013 01:48 1,8 C 0,1 C 81 % 1012,1 hPa 0,0 l/m 0 min 0 min 0,0 UV-I 0 W/m 20,6 km/h (4 Bft)
16.03.2013 01:50 1,8 C 0,7 C 81 % 1012,1 hPa 0,0 l/m 0 min 0 min 0,0 UV-I 0 W/m 10,3 km/h (2 Bft)
16.03.2013 01:52 1,8 C 0,7 C 81 % 1012,1 hPa 0,0 l/m 0 min 0 min 0,0 UV-I 0 W/m 10,3 km/h (2 Bft)
16.03.2013 01:54 1,8 C 0,7 C 82 % 1012,1 hPa 0,0 l/m 0 min 0 min 0,0 UV-I 0 W/m 10,3 km/h (2 Bft)
16.03.2013 01:56 1,8 C 0,7 C 82 % 1012,0 hPa 0,0 l/m 0 min 0 min 0,0 UV-I 0 W/m 10,3 km/h (2 Bft)
16.03.2013 01:58 1,8 C 0,7 C 81 % 1012,1 hPa 0,0 l/m 0 min 0 min 0,0 UV-I 0 W/m 12,9 km/h (3 Bft)
16.03.2013 02:00 1,8 C 0,7 C 81 % 1012,0 hPa 0,0 l/m 0 min 0 min 0,0 UV-I 0 W/m 7,7 km/h (2 Bft)
16.03.2013 02:02 1,8 C 0,7 C 81 % 1012,0 hPa 0,0 l/m 0 min 0 min 0,0 UV-I 0 W/m 10,3 km/h (2 Bft)
16.03.2013 02:04 1,8 C 0,7 C 81 % 1012,0 hPa 0,0 l/m 0 min 0 min 0,0 UV-I 0 W/m 10,3 km/h (2 Bft)
16.03.2013 02:06 1,9 C 0,7 C 81 % 1012,0 hPa 0,0 l/m 0 min 0 min 0,0 UV-I 0 W/m 12,9 km/h (3 Bft)
16.03.2013 02:08 1,9 C 0,7 C 81 % 1012,0 hPa 0,0 l/m 0 min 0 min 0,0 UV-I 0 W/m 20,6 km/h (4 Bft)
16.03.2013 02:10 1,9 C 0,7 C 81 % 1012,0 hPa 0,0 l/m 0 min 0 min 0,0 UV-I 0 W/m 15,4 km/h (3 Bft)
16.03.2013 02:12 1,9 C 0,7 C 81 % 1012,0 hPa 0,0 l/m 0 min 0 min 0,0 UV-I 0 W/m 15,4 km/h (3 Bft)
16.03.2013 02:14 1,9 C 0,7 C 81 % 1012,0 hPa 0,0 l/m 0 min 0 min 0,0 UV-I 0 W/m 10,3 km/h (2 Bft)
16.03.2013 02:16 2,0 C 0,7 C 80 % 1011,9 hPa 0,0 l/m 0 min 0 min 0,0 UV-I 0 W/m 12,9 km/h (3 Bft)
16.03.2013 02:18 2,0 C 0,7 C 80 % 1011,9 hPa 0,0 l/m 0 min 0 min 0,0 UV-I 0 W/m 15,4 km/h (3 Bft)
16.03.2013 02:20 2,1 C 0,7 C 81 % 1011,9 hPa 0,0 l/m 0 min 0 min 0,0 UV-I 0 W/m 18,0 km/h (3 Bft)
16.03.2013 02:22 2,1 C 0,7 C 81 % 1011,9 hPa 0,0 l/m 0 min 0 min 0,0 UV-I 0 W/m 15,4 km/h (3 Bft)
16.03.2013 02:24 2,1 C 0,7 C 81 % 1011,8 hPa 0,0 l/m 0 min 0 min 0,0 UV-I 0 W/m 12,9 km/h (3 Bft)
16.03.2013 02:26 2,1 C 0,7 C 81 % 1011,8 hPa 0,0 l/m 0 min 0 min 0,0 UV-I 0 W/m 15,4 km/h (3 Bft)
16.03.2013 02:28 2,1 C 0,7 C 81 % 1011,8 hPa 0,0 l/m 0 min 0 min 0,0 UV-I 0 W/m 15,4 km/h (3 Bft)
16.03.2013 02:30 2,1 C 0,7 C 81 % 1011,7 hPa 0,0 l/m 0 min 0 min 0,0 UV-I 0 W/m 18,0 km/h (3 Bft)
16.03.2013 02:32 2,1 C 0,7 C 82 % 1011,8 hPa 0,0 l/m 0 min 0 min 0,0 UV-I 0 W/m 18,0 km/h (3 Bft)
16.03.2013 02:34 2,1 C 0,7 C 82 % 1011,7 hPa 0,0 l/m 0 min 0 min 0,0 UV-I 0 W/m 25,7 km/h (4 Bft)
16.03.2013 02:36 2,1 C 0,7 C 82 % 1011,7 hPa 0,0 l/m 0 min 0 min 0,0 UV-I 0 W/m 18,0 km/h (3 Bft)
16.03.2013 02:38 2,1 C 0,7 C 82 % 1011,7 hPa 0,0 l/m 0 min 0 min 0,0 UV-I 0 W/m 20,6 km/h (4 Bft)
16.03.2013 02:40 2,1 C 0,7 C 83 % 1011,6 hPa 0,0 l/m 0 min 0 min 0,0 UV-I 0 W/m 23,2 km/h (4 Bft)
16.03.2013 02:42 2,1 C 0,7 C 83 % 1011,6 hPa 0,0 l/m 0 min 0 min 0,0 UV-I 0 W/m 33,5 km/h (5 Bft)
16.03.2013 02:44 2,0 C 0,7 C 84 % 1011,6 hPa 0,0 l/m 0 min 0 min 0,0 UV-I 0 W/m 23,2 km/h (4 Bft)
16.03.2013 02:46 2,0 C 0,7 C 84 % 1011,7 hPa 0,0 l/m 0 min 0 min 0,0 UV-I 0 W/m 18,0 km/h (3 Bft)
16.03.2013 02:48 1,9 C 0,7 C 84 % 1011,7 hPa 0,0 l/m 0 min 0 min 0,0 UV-I 0 W/m 12,9 km/h (3 Bft)
16.03.2013 02:50 1,9 C 0,1 C 84 % 1011,6 hPa 0,0 l/m 0 min 0 min 0,0 UV-I 0 W/m 23,2 km/h (4 Bft)
16.03.2013 02:52 1,9 C 0,1 C 84 % 1011,6 hPa 0,0 l/m 0 min 0 min 0,0 UV-I 0 W/m 15,4 km/h (3 Bft)
16.03.2013 02:54 1,8 C 0,1 C 84 % 1011,6 hPa 0,0 l/m 0 min 0 min 0,0 UV-I 0 W/m 18,0 km/h (3 Bft)
16.03.2013 02:56 1,8 C 0,1 C 84 % 1011,5 hPa 0,0 l/m 0 min 0 min 0,0 UV-I 0 W/m 15,4 km/h (3 Bft)
16.03.2013 02:58 1,8 C 0,1 C 84 % 1011,5 hPa 0,0 l/m 0 min 0 min 0,0 UV-I 0 W/m 7,7 km/h (2 Bft)
16.03.2013 03:00 1,8 C 0,1 C 84 % 1011,5 hPa 0,0 l/m 0 min 0 min 0,0 UV-I 0 W/m 15,4 km/h (3 Bft)
16.03.2013 03:02 1,8 C 0,1 C 84 % 1011,5 hPa 0,0 l/m 0 min 0 min 0,0 UV-I 0 W/m 10,3 km/h (2 Bft)
16.03.2013 03:04 1,7 C 0,1 C 84 % 1011,4 hPa 0,0 l/m 0 min 0 min 0,0 UV-I 0 W/m 18,0 km/h (3 Bft)
16.03.2013 03:06 1,7 C 0,1 C 84 % 1011,4 hPa 0,0 l/m 0 min 0 min 0,0 UV-I 0 W/m 12,9 km/h (3 Bft)
16.03.2013 03:08 1,7 C 0,1 C 84 % 1011,4 hPa 0,0 l/m 0 min 0 min 0,0 UV-I 0 W/m 12,9 km/h (3 Bft)
16.03.2013 03:10 1,7 C 0,1 C 84 % 1011,4 hPa 0,0 l/m 0 min 0 min 0,0 UV-I 0 W/m 20,6 km/h (4 Bft)
16.03.2013 03:12 1,6 C 0,1 C 83 % 1011,5 hPa 0,0 l/m 0 min 0 min 0,0 UV-I 0 W/m 18,0 km/h (3 Bft)
16.03.2013 03:14 1,6 C 0,1 C 83 % 1011,4 hPa 0,0 l/m 0 min 0 min 0,0 UV-I 0 W/m 18,0 km/h (3 Bft)
16.03.2013 03:16 1,6 C 0,1 C 83 % 1011,4 hPa 0,0 l/m 0 min 0 min 0,0 UV-I 0 W/m 15,4 km/h (3 Bft)
16.03.2013 03:18 1,6 C 0,1 C 82 % 1011,3 hPa 0,0 l/m 0 min 0 min 0,0 UV-I 0 W/m 18,0 km/h (3 Bft)
16.03.2013 03:20 1,6 C 0,1 C 82 % 1011,3 hPa 0,0 l/m 0 min 0 min 0,0 UV-I 0 W/m 12,9 km/h (3 Bft)
16.03.2013 03:22 1,6 C 0,1 C 82 % 1011,2 hPa 0,0 l/m 0 min 0 min 0,0 UV-I 0 W/m 18,0 km/h (3 Bft)
16.03.2013 03:24 1,6 C 0,1 C 81 % 1011,2 hPa 0,0 l/m 0 min 0 min 0,0 UV-I 0 W/m 20,6 km/h (4 Bft)
16.03.2013 03:26 1,6 C 0,1 C 81 % 1011,1 hPa 0,0 l/m 0 min 0 min 0,0 UV-I 0 W/m 15,4 km/h (3 Bft)
16.03.2013 03:28 1,6 C 0,1 C 81 % 1011,1 hPa 0,0 l/m 0 min 0 min 0,0 UV-I 0 W/m 12,9 km/h (3 Bft)
16.03.2013 03:30 1,6 C 0,1 C 81 % 1011,1 hPa 0,0 l/m 0 min 0 min 0,0 UV-I 0 W/m 10,3 km/h (2 Bft)
16.03.2013 03:32 1,6 C 0,1 C 81 % 1011,1 hPa 0,0 l/m 0 min 0 min 0,0 UV-I 0 W/m 20,6 km/h (4 Bft)
16.03.2013 03:34 1,6 C 0,1 C 81 % 1011,1 hPa 0,0 l/m 0 min 0 min 0,0 UV-I 0 W/m 20,6 km/h (4 Bft)
16.03.2013 03:36 1,6 C 0,1 C 81 % 1011,0 hPa 0,0 l/m 0 min 0 min 0,0 UV-I 0 W/m 18,0 km/h (3 Bft)
16.03.2013 03:38 1,6 C 0,1 C 80 % 1011,0 hPa 0,0 l/m 0 min 0 min 0,0 UV-I 0 W/m 15,4 km/h (3 Bft)
16.03.2013 03:40 1,6 C 0,1 C 80 % 1011,0 hPa 0,0 l/m 0 min 0 min 0,0 UV-I 0 W/m 20,6 km/h (4 Bft)
16.03.2013 03:42 1,6 C 0,1 C 80 % 1011,0 hPa 0,0 l/m 0 min 0 min 0,0 UV-I 0 W/m 15,4 km/h (3 Bft)
16.03.2013 03:44 1,6 C 0,1 C 80 % 1011,0 hPa 0,0 l/m 0 min 0 min 0,0 UV-I 0 W/m 12,9 km/h (3 Bft)
16.03.2013 03:46 1,6 C 0,1 C 80 % 1011,0 hPa 0,0 l/m 0 min 0 min 0,0 UV-I 0 W/m 15,4 km/h (3 Bft)
16.03.2013 03:48 1,7 C 0,1 C 79 % 1010,9 hPa 0,0 l/m 0 min 0 min 0,0 UV-I 0 W/m 23,2 km/h (4 Bft)
16.03.2013 03:50 1,7 C 0,1 C 79 % 1010,9 hPa 0,0 l/m 0 min 0 min 0,0 UV-I 0 W/m 12,9 km/h (3 Bft)
16.03.2013 03:52 1,7 C 0,1 C 79 % 1011,0 hPa 0,0 l/m 0 min 0 min 0,0 UV-I 0 W/m 10,3 km/h (2 Bft)
16.03.2013 03:54 1,7 C 0,1 C 79 % 1010,9 hPa 0,0 l/m 0 min 0 min 0,0 UV-I 0 W/m 18,0 km/h (3 Bft)
16.03.2013 03:56 1,7 C 0,1 C 78 % 1010,9 hPa 0,0 l/m 0 min 0 min 0,0 UV-I 0 W/m 25,7 km/h (4 Bft)
16.03.2013 03:58 1,7 C 0,1 C 78 % 1010,9 hPa 0,0 l/m 0 min 0 min 0,0 UV-I 0 W/m 20,6 km/h (4 Bft)
16.03.2013 04:00 1,7 C 0,1 C 78 % 1010,8 hPa 0,0 l/m 0 min 0 min 0,0 UV-I 0 W/m 15,4 km/h (3 Bft)
16.03.2013 04:02 1,7 C 0,1 C 78 % 1010,9 hPa 0,0 l/m 0 min 0 min 0,0 UV-I 0 W/m 15,4 km/h (3 Bft)
16.03.2013 04:04 1,7 C 0,1 C 78 % 1010,9 hPa 0,0 l/m 0 min 0 min 0,0 UV-I 0 W/m 12,9 km/h (3 Bft)
16.03.2013 04:06 1,7 C 0,1 C 78 % 1011,0 hPa 0,0 l/m 0 min 0 min 0,0 UV-I 0 W/m 28,3 km/h (4 Bft)
16.03.2013 04:08 1,7 C 0,1 C 78 % 1010,9 hPa 0,0 l/m 0 min 0 min 0,0 UV-I 0 W/m 20,6 km/h (4 Bft)
16.03.2013 04:10 1,7 C 0,1 C 77 % 1010,9 hPa 0,0 l/m 0 min 0 min 0,0 UV-I 0 W/m 15,4 km/h (3 Bft)
16.03.2013 04:12 1,7 C 0,1 C 77 % 1010,8 hPa 0,0 l/m 0 min 0 min 0,0 UV-I 0 W/m 15,4 km/h (3 Bft)
16.03.2013 04:14 1,8 C 0,1 C 77 % 1010,8 hPa 0,0 l/m 0 min 0 min 0,0 UV-I 0 W/m 23,2 km/h (4 Bft)
16.03.2013 04:16 1,8 C 0,1 C 77 % 1010,8 hPa 0,0 l/m 0 min 0 min 0,0 UV-I 0 W/m 12,9 km/h (3 Bft)
16.03.2013 04:18 1,8 C 0,1 C 77 % 1010,8 hPa 0,0 l/m 0 min 0 min 0,0 UV-I 0 W/m 18,0 km/h (3 Bft)
16.03.2013 04:20 1,8 C 0,1 C 77 % 1010,8 hPa 0,0 l/m 0 min 0 min 0,0 UV-I 0 W/m 18,0 km/h (3 Bft)
16.03.2013 04:22 1,8 C 0,1 C 77 % 1010,7 hPa 0,0 l/m 0 min 0 min 0,0 UV-I 0 W/m 15,4 km/h (3 Bft)
16.03.2013 04:24 1,8 C 0,1 C 77 % 1010,7 hPa 0,0 l/m 0 min 0 min 0,0 UV-I 0 W/m 15,4 km/h (3 Bft)
16.03.2013 04:26 1,8 C 0,1 C 77 % 1010,8 hPa 0,0 l/m 0 min 0 min 0,0 UV-I 0 W/m 12,9 km/h (3 Bft)
16.03.2013 04:28 1,8 C 0,1 C 77 % 1010,7 hPa 0,0 l/m 0 min 0 min 0,0 UV-I 0 W/m 20,6 km/h (4 Bft)
16.03.2013 04:30 1,8 C 0,1 C 77 % 1010,8 hPa 0,0 l/m 0 min 0 min 0,0 UV-I 0 W/m 15,4 km/h (3 Bft)
16.03.2013 04:32 1,8 C 0,1 C 77 % 1010,9 hPa 0,0 l/m 0 min 0 min 0,0 UV-I 0 W/m 20,6 km/h (4 Bft)
16.03.2013 04:34 1,8 C 0,1 C 77 % 1010,9 hPa 0,0 l/m 0 min 0 min 0,0 UV-I 0 W/m 12,9 km/h (3 Bft)
16.03.2013 04:36 1,8 C 0,1 C 77 % 1010,9 hPa 0,0 l/m 0 min 0 min 0,0 UV-I 0 W/m 10,3 km/h (2 Bft)
16.03.2013 04:38 1,8 C 0,1 C 77 % 1010,9 hPa 0,0 l/m 0 min 0 min 0,0 UV-I 0 W/m 15,4 km/h (3 Bft)
16.03.2013 04:40 1,8 C 0,1 C 77 % 1010,9 hPa 0,0 l/m 0 min 0 min 0,0 UV-I 0 W/m 18,0 km/h (3 Bft)
16.03.2013 04:42 1,8 C 0,1 C 77 % 1010,9 hPa 0,0 l/m 0 min 0 min 0,0 UV-I 0 W/m 10,3 km/h (2 Bft)
16.03.2013 04:44 1,7 C 0,1 C 77 % 1010,8 hPa 0,0 l/m 0 min 0 min 0,0 UV-I 0 W/m 20,6 km/h (4 Bft)
16.03.2013 04:46 1,8 C 0,1 C 77 % 1010,8 hPa 0,0 l/m 0 min 0 min 0,0 UV-I 0 W/m 12,9 km/h (3 Bft)
16.03.2013 04:48 1,7 C 0,1 C 77 % 1010,9 hPa 0,0 l/m 0 min 0 min 0,0 UV-I 0 W/m 18,0 km/h (3 Bft)
16.03.2013 04:50 1,7 C 0,1 C 77 % 1010,8 hPa 0,0 l/m 0 min 0 min 0,0 UV-I 0 W/m 20,6 km/h (4 Bft)
16.03.2013 04:52 1,7 C 0,1 C 76 % 1010,8 hPa 0,0 l/m 0 min 0 min 0,0 UV-I 0 W/m 12,9 km/h (3 Bft)
16.03.2013 04:54 1,7 C 0,1 C 76 % 1010,8 hPa 0,0 l/m 0 min 0 min 0,0 UV-I 0 W/m 20,6 km/h (4 Bft)
16.03.2013 04:56 1,7 C 0,1 C 76 % 1010,8 hPa 0,0 l/m 0 min 0 min 0,0 UV-I 0 W/m 15,4 km/h (3 Bft)
16.03.2013 04:58 1,7 C 0,1 C 76 % 1010,7 hPa 0,0 l/m 0 min 0 min 0,0 UV-I 0 W/m 15,4 km/h (3 Bft)
16.03.2013 05:00 1,7 C 0,1 C 76 % 1010,7 hPa 0,0 l/m 0 min 0 min 0,0 UV-I 0 W/m 18,0 km/h (3 Bft)
16.03.2013 05:02 1,7 C 0,1 C 76 % 1010,7 hPa 0,0 l/m 0 min 0 min 0,0 UV-I 0 W/m 10,3 km/h (2 Bft)
16.03.2013 05:04 1,7 C 0,1 C 77 % 1010,7 hPa 0,0 l/m 0 min 0 min 0,0 UV-I 0 W/m 15,4 km/h (3 Bft)
16.03.2013 05:06 1,7 C 0,1 C 76 % 1010,7 hPa 0,0 l/m 0 min 0 min 0,0 UV-I 0 W/m 10,3 km/h (2 Bft)
16.03.2013 05:08 1,7 C 0,1 C 76 % 1010,7 hPa 0,0 l/m 0 min 0 min 0,0 UV-I 0 W/m 18,0 km/h (3 Bft)
16.03.2013 05:10 1,7 C 0,1 C 76 % 1010,7 hPa 0,0 l/m 0 min 0 min 0,0 UV-I 0 W/m 20,6 km/h (4 Bft)
16.03.2013 05:12 1,7 C 0,1 C 76 % 1010,7 hPa 0,0 l/m 0 min 0 min 0,0 UV-I 0 W/m 20,6 km/h (4 Bft)
16.03.2013 05:14 1,7 C 0,1 C 76 % 1010,7 hPa 0,0 l/m 0 min 0 min 0,0 UV-I 0 W/m 12,9 km/h (3 Bft)
16.03.2013 05:16 1,7 C 0,1 C 76 % 1010,7 hPa 0,0 l/m 0 min 0 min 0,0 UV-I 0 W/m 18,0 km/h (3 Bft)
16.03.2013 05:18 1,7 C 0,1 C 76 % 1010,6 hPa 0,0 l/m 0 min 0 min 0,0 UV-I 0 W/m 7,7 km/h (2 Bft)
16.03.2013 05:20 1,7 C 0,1 C 76 % 1010,6 hPa 0,0 l/m 0 min 0 min 0,0 UV-I 0 W/m 18,0 km/h (3 Bft)
16.03.2013 05:22 1,7 C 0,1 C 76 % 1010,7 hPa 0,0 l/m 0 min 0 min 0,0 UV-I 0 W/m 20,6 km/h (4 Bft)
16.03.2013 05:24 1,7 C 0,1 C 76 % 1010,6 hPa 0,0 l/m 0 min 0 min 0,0 UV-I 0 W/m 18,0 km/h (3 Bft)
16.03.2013 05:26 1,7 C 0,1 C 76 % 1010,7 hPa 0,0 l/m 0 min 0 min 0,0 UV-I 0 W/m 20,6 km/h (4 Bft)
16.03.2013 05:28 1,7 C 0,1 C 76 % 1010,6 hPa 0,0 l/m 0 min 0 min 0,0 UV-I 0 W/m 18,0 km/h (3 Bft)
16.03.2013 05:30 1,7 C 0,1 C 76 % 1010,6 hPa 0,0 l/m 0 min 0 min 0,0 UV-I 0 W/m 18,0 km/h (3 Bft)
16.03.2013 05:32 1,7 C 0,1 C 76 % 1010,7 hPa 0,0 l/m 0 min 0 min 0,0 UV-I 0 W/m 25,7 km/h (4 Bft)
16.03.2013 05:34 1,7 C 0,1 C 76 % 1010,6 hPa 0,0 l/m 0 min 0 min 0,0 UV-I 0 W/m 18,0 km/h (3 Bft)
16.03.2013 05:36 1,7 C 0,1 C 76 % 1010,5 hPa 0,0 l/m 0 min 0 min 0,0 UV-I 0 W/m 15,4 km/h (3 Bft)
16.03.2013 05:38 1,7 C 0,1 C 76 % 1010,5 hPa 0,0 l/m 0 min 0 min 0,0 UV-I 0 W/m 18,0 km/h (3 Bft)
16.03.2013 05:40 1,7 C 0,1 C 76 % 1010,5 hPa 0,0 l/m 0 min 0 min 0,0 UV-I 0 W/m 23,2 km/h (4 Bft)
16.03.2013 05:42 1,7 C 0,1 C 76 % 1010,6 hPa 0,0 l/m 0 min 0 min 0,0 UV-I 0 W/m 12,9 km/h (3 Bft)
16.03.2013 05:44 1,7 C 0,1 C 76 % 1010,6 hPa 0,0 l/m 0 min 0 min 0,0 UV-I 0 W/m 15,4 km/h (3 Bft)
16.03.2013 05:46 1,7 C 0,1 C 76 % 1010,5 hPa 0,0 l/m 0 min 0 min 0,0 UV-I 0 W/m 20,6 km/h (4 Bft)
16.03.2013 05:48 1,7 C 0,1 C 76 % 1010,5 hPa 0,0 l/m 0 min 0 min 0,0 UV-I 0 W/m 18,0 km/h (3 Bft)
16.03.2013 05:50 1,7 C 0,1 C 76 % 1010,5 hPa 0,0 l/m 0 min 0 min 0,0 UV-I 0 W/m 20,6 km/h (4 Bft)
16.03.2013 05:52 1,7 C 0,1 C 76 % 1010,4 hPa 0,0 l/m 0 min 0 min 0,0 UV-I 0 W/m 20,6 km/h (4 Bft)
16.03.2013 05:54 1,7 C 0,1 C 76 % 1010,5 hPa 0,0 l/m 0 min 0 min 0,0 UV-I 0 W/m 25,7 km/h (4 Bft)
16.03.2013 05:56 1,7 C 0,1 C 76 % 1010,6 hPa 0,0 l/m 0 min 0 min 0,0 UV-I 0 W/m 12,9 km/h (3 Bft)
16.03.2013 05:58 1,7 C 0,1 C 76 % 1010,5 hPa 0,0 l/m 0 min 0 min 0,0 UV-I 0 W/m 20,6 km/h (4 Bft)
16.03.2013 06:00 1,7 C 0,1 C 76 % 1010,5 hPa 0,0 l/m 0 min 0 min 0,0 UV-I 0 W/m 18,0 km/h (3 Bft)
16.03.2013 06:02 1,7 C 0,1 C 76 % 1010,5 hPa 0,0 l/m 0 min 0 min 0,0 UV-I 0 W/m 15,4 km/h (3 Bft)
16.03.2013 06:04 1,7 C 0,1 C 76 % 1010,5 hPa 0,0 l/m 0 min 0 min 0,0 UV-I 0 W/m 15,4 km/h (3 Bft)
16.03.2013 06:06 1,7 C 0,1 C 76 % 1010,6 hPa 0,0 l/m 0 min 0 min 0,0 UV-I 0 W/m 18,0 km/h (3 Bft)
16.03.2013 06:08 1,7 C 0,1 C 76 % 1010,5 hPa 0,0 l/m 0 min 0 min 0,0 UV-I 0 W/m 18,0 km/h (3 Bft)
16.03.2013 06:10 1,7 C 0,1 C 75 % 1010,5 hPa 0,0 l/m 0 min 0 min 0,0 UV-I 0 W/m 23,2 km/h (4 Bft)
16.03.2013 06:12 1,7 C 0,1 C 75 % 1010,6 hPa 0,0 l/m 0 min 0 min 0,0 UV-I 0 W/m 28,3 km/h (4 Bft)
16.03.2013 06:14 1,7 C 0,1 C 75 % 1010,7 hPa 0,0 l/m 0 min 0 min 0,0 UV-I 0 W/m 20,6 km/h (4 Bft)
16.03.2013 06:16 1,7 C 0,1 C 75 % 1010,7 hPa 0,0 l/m 0 min 0 min 0,0 UV-I 0 W/m 18,0 km/h (3 Bft)
16.03.2013 06:18 1,7 C 0,1 C 75 % 1010,7 hPa 0,0 l/m 0 min 0 min 0,0 UV-I 0 W/m 25,7 km/h (4 Bft)
16.03.2013 06:20 1,7 C 0,1 C 75 % 1010,6 hPa 0,0 l/m 0 min 0 min 0,0 UV-I 0 W/m 20,6 km/h (4 Bft)
16.03.2013 06:22 1,7 C 0,1 C 75 % 1010,6 hPa 0,0 l/m 0 min 0 min 0,0 UV-I 0 W/m 18,0 km/h (3 Bft)
16.03.2013 06:24 1,7 C 0,1 C 75 % 1010,6 hPa 0,0 l/m 0 min 0 min 0,0 UV-I 0 W/m 18,0 km/h (3 Bft)
16.03.2013 06:26 1,7 C 0,1 C 75 % 1010,6 hPa 0,0 l/m 0 min 0 min 0,0 UV-I 0 W/m 18,0 km/h (3 Bft)
16.03.2013 06:28 1,7 C 0,1 C 75 % 1010,6 hPa 0,0 l/m 0 min 0 min 0,0 UV-I 0 W/m 23,2 km/h (4 Bft)
16.03.2013 06:30 1,7 C 0,1 C 75 % 1010,6 hPa 0,0 l/m 0 min 0 min 0,0 UV-I 0 W/m 20,6 km/h (4 Bft)
16.03.2013 06:32 1,7 C 0,1 C 75 % 1010,6 hPa 0,0 l/m 0 min 0 min 0,0 UV-I 0 W/m 20,6 km/h (4 Bft)
16.03.2013 06:34 1,7 C 0,1 C 75 % 1010,5 hPa 0,0 l/m 0 min 0 min 0,0 UV-I 0 W/m 20,6 km/h (4 Bft)
16.03.2013 06:36 1,6 C 0,1 C 75 % 1010,6 hPa 0,0 l/m 0 min 0 min 0,0 UV-I 0 W/m 23,2 km/h (4 Bft)
16.03.2013 06:38 1,6 C 0,1 C 75 % 1010,6 hPa 0,0 l/m 0 min 0 min 0,0 UV-I 0 W/m 25,7 km/h (4 Bft)
16.03.2013 06:40 1,6 C 0,1 C 75 % 1010,6 hPa 0,0 l/m 0 min 0 min 0,0 UV-I 0 W/m 23,2 km/h (4 Bft)
16.03.2013 06:42 1,6 C 0,1 C 75 % 1010,6 hPa 0,0 l/m 0 min 0 min 0,0 UV-I 0 W/m 23,2 km/h (4 Bft)
16.03.2013 06:44 1,6 C 0,1 C 75 % 1010,6 hPa 0,0 l/m 0 min 0 min 0,0 UV-I 0 W/m 23,2 km/h (4 Bft)
16.03.2013 06:46 1,6 C 0,1 C 75 % 1010,6 hPa 0,0 l/m 0 min 0 min 0,0 UV-I 0 W/m 15,4 km/h (3 Bft)
16.03.2013 06:48 1,6 C 0,1 C 75 % 1010,7 hPa 0,0 l/m 0 min 0 min 0,0 UV-I 5 W/m 20,6 km/h (4 Bft)
16.03.2013 06:50 1,6 C 0,1 C 75 % 1010,7 hPa 0,0 l/m 0 min 0 min 0,0 UV-I 5 W/m 20,6 km/h (4 Bft)
16.03.2013 06:52 1,6 C 0,1 C 75 % 1010,7 hPa 0,0 l/m 0 min 0 min 0,0 UV-I 5 W/m 18,0 km/h (3 Bft)
16.03.2013 06:54 1,6 C 0,1 C 75 % 1010,7 hPa 0,0 l/m 0 min 0 min 0,0 UV-I 7 W/m 20,6 km/h (4 Bft)
16.03.2013 06:56 1,5 C 0,1 C 75 % 1010,7 hPa 0,0 l/m 0 min 0 min 0,0 UV-I 7 W/m 20,6 km/h (4 Bft)
16.03.2013 06:58 1,5 C -0,4 C 75 % 1010,7 hPa 0,0 l/m 0 min 0 min 0,0 UV-I 9 W/m 20,6 km/h (4 Bft)
16.03.2013 07:00 1,4 C -0,4 C 74 % 1010,6 hPa 0,0 l/m 0 min 0 min 0,0 UV-I 11 W/m 23,2 km/h (4 Bft)
16.03.2013 07:02 1,4 C -0,4 C 75 % 1010,5 hPa 0,0 l/m 0 min 0 min 0,0 UV-I 12 W/m 18,0 km/h (3 Bft)
16.03.2013 07:04 1,4 C -0,4 C 74 % 1010,5 hPa 0,0 l/m 0 min 0 min 0,0 UV-I 14 W/m 20,6 km/h (4 Bft)
16.03.2013 07:06 1,3 C -0,4 C 75 % 1010,5 hPa 0,0 l/m 0 min 0 min 0,0 UV-I 16 W/m 23,2 km/h (4 Bft)
16.03.2013 07:08 1,3 C -0,4 C 75 % 1010,5 hPa 0,0 l/m 0 min 0 min 0,0 UV-I 18 W/m 30,9 km/h (5 Bft)
16.03.2013 07:10 1,3 C -0,4 C 75 % 1010,4 hPa 0,0 l/m 0 min 0 min 0,0 UV-I 21 W/m 18,0 km/h (3 Bft)
16.03.2013 07:12 1,3 C -0,4 C 75 % 1010,5 hPa 0,0 l/m 0 min 0 min 0,0 UV-I 23 W/m 18,0 km/h (3 Bft)
16.03.2013 07:14 1,3 C -0,4 C 75 % 1010,4 hPa 0,0 l/m 0 min 0 min 0,0 UV-I 25 W/m 23,2 km/h (4 Bft)
16.03.2013 07:16 1,3 C -0,4 C 75 % 1010,4 hPa 0,0 l/m 0 min 0 min 0,0 UV-I 26 W/m 23,2 km/h (4 Bft)
16.03.2013 07:18 1,3 C 0,1 C 75 % 1010,4 hPa 0,0 l/m 0 min 0 min 0,0 UV-I 28 W/m 25,7 km/h (4 Bft)
16.03.2013 07:20 1,3 C 0,1 C 75 % 1010,5 hPa 0,0 l/m 0 min 0 min 0,0 UV-I 30 W/m 23,2 km/h (4 Bft)
16.03.2013 07:22 1,3 C 0,1 C 75 % 1010,5 hPa 0,0 l/m 0 min 0 min 0,0 UV-I 32 W/m 25,7 km/h (4 Bft)
16.03.2013 07:24 1,3 C 0,1 C 75 % 1010,5 hPa 0,0 l/m 0 min 0 min 0,0 UV-I 33 W/m 20,6 km/h (4 Bft)
16.03.2013 07:26 1,3 C 0,1 C 75 % 1010,6 hPa 0,0 l/m 0 min 0 min 0,0 UV-I 37 W/m 18,0 km/h (3 Bft)
16.03.2013 07:28 1,3 C 0,1 C 75 % 1010,6 hPa 0,0 l/m 0 min 0 min 0,0 UV-I 42 W/m 20,6 km/h (4 Bft)
16.03.2013 07:30 1,3 C 0,1 C 75 % 1010,6 hPa 0,0 l/m 0 min 0 min 0,0 UV-I 46 W/m 25,7 km/h (4 Bft)
16.03.2013 07:32 1,3 C 0,1 C 75 % 1010,6 hPa 0,0 l/m 0 min 0 min 0,0 UV-I 49 W/m 25,7 km/h (4 Bft)
16.03.2013 07:34 1,3 C 0,1 C 75 % 1010,5 hPa 0,0 l/m 0 min 0 min 0,0 UV-I 51 W/m 23,2 km/h (4 Bft)
16.03.2013 07:36 1,3 C 0,1 C 75 % 1010,6 hPa 0,0 l/m 0 min 0 min 0,0 UV-I 53 W/m 20,6 km/h (4 Bft)
16.03.2013 07:38 1,3 C 0,1 C 75 % 1010,6 hPa 0,0 l/m 0 min 0 min 0,0 UV-I 53 W/m 28,3 km/h (4 Bft)
16.03.2013 07:40 1,3 C 0,1 C 75 % 1010,6 hPa 0,0 l/m 0 min 0 min 0,0 UV-I 56 W/m 18,0 km/h (3 Bft)
16.03.2013 07:42 1,3 C 0,1 C 75 % 1010,5 hPa 0,0 l/m 0 min 0 min 0,0 UV-I 58 W/m 20,6 km/h (4 Bft)
16.03.2013 07:44 1,3 C 0,1 C 75 % 1010,6 hPa 0,0 l/m 0 min 0 min 0,0 UV-I 58 W/m 25,7 km/h (4 Bft)
16.03.2013 07:46 1,3 C 0,1 C 75 % 1010,6 hPa 0,0 l/m 0 min 0 min 0,0 UV-I 62 W/m 20,6 km/h (4 Bft)
16.03.2013 07:48 1,3 C 0,1 C 75 % 1010,6 hPa 0,0 l/m 0 min 0 min 0,0 UV-I 63 W/m 18,0 km/h (3 Bft)
16.03.2013 07:50 1,4 C 0,1 C 75 % 1010,6 hPa 0,0 l/m 0 min 0 min 0,0 UV-I 67 W/m 20,6 km/h (4 Bft)
16.03.2013 07:52 1,4 C 0,7 C 75 % 1010,4 hPa 0,0 l/m 0 min 0 min 0,0 UV-I 79 W/m 18,0 km/h (3 Bft)
16.03.2013 07:54 1,5 C 0,7 C 75 % 1010,4 hPa 0,0 l/m 0 min 0 min 0,0 UV-I 84 W/m 20,6 km/h (4 Bft)
16.03.2013 07:56 1,6 C 0,7 C 75 % 1010,5 hPa 0,0 l/m 0 min 0 min 0,0 UV-I 86 W/m 20,6 km/h (4 Bft)
16.03.2013 07:58 1,6 C 0,7 C 75 % 1010,5 hPa 0,0 l/m 0 min 0 min 0,0 UV-I 79 W/m 18,0 km/h (3 Bft)
16.03.2013 08:00 1,6 C 0,7 C 75 % 1010,5 hPa 0,0 l/m 0 min 0 min 0,0 UV-I 81 W/m 12,9 km/h (3 Bft)
16.03.2013 08:02 1,7 C 0,7 C 75 % 1010,4 hPa 0,0 l/m 0 min 0 min 0,0 UV-I 83 W/m 18,0 km/h (3 Bft)
16.03.2013 08:04 1,7 C 0,7 C 75 % 1010,5 hPa 0,0 l/m 0 min 0 min 0,0 UV-I 77 W/m 18,0 km/h (3 Bft)
16.03.2013 08:06 1,7 C 0,7 C 74 % 1010,5 hPa 0,0 l/m 0 min 0 min 0,0 UV-I 76 W/m 18,0 km/h (3 Bft)
16.03.2013 08:08 1,7 C 0,7 C 74 % 1010,5 hPa 0,0 l/m 0 min 0 min 0,0 UV-I 79 W/m 20,6 km/h (4 Bft)
16.03.2013 08:10 1,8 C 0,7 C 74 % 1010,4 hPa 0,0 l/m 0 min 0 min 0,0 UV-I 84 W/m 25,7 km/h (4 Bft)
16.03.2013 08:12 1,8 C 0,7 C 74 % 1010,4 hPa 0,0 l/m 0 min 0 min 0,0 UV-I 88 W/m 20,6 km/h (4 Bft)
16.03.2013 08:14 1,8 C 0,7 C 74 % 1010,4 hPa 0,0 l/m 0 min 0 min 0,0 UV-I 90 W/m 15,4 km/h (3 Bft)
16.03.2013 08:16 1,8 C 1,2 C 74 % 1010,5 hPa 0,0 l/m 0 min 0 min 0,0 UV-I 93 W/m 20,6 km/h (4 Bft)
16.03.2013 08:18 1,9 C 1,2 C 74 % 1010,5 hPa 0,0 l/m 0 min 0 min 0,0 UV-I 90 W/m 23,2 km/h (4 Bft)
16.03.2013 08:20 1,9 C 1,2 C 74 % 1010,5 hPa 0,0 l/m 0 min 0 min 0,0 UV-I 88 W/m 20,6 km/h (4 Bft)
16.03.2013 08:22 1,9 C 1,2 C 74 % 1010,5 hPa 0,0 l/m 0 min 0 min 0,0 UV-I 83 W/m 25,7 km/h (4 Bft)
16.03.2013 08:24 2,0 C 1,2 C 74 % 1010,5 hPa 0,0 l/m 0 min 0 min 0,0 UV-I 81 W/m 20,6 km/h (4 Bft)
16.03.2013 08:26 2,0 C 1,2 C 74 % 1010,4 hPa 0,0 l/m 0 min 0 min 0,0 UV-I 81 W/m 28,3 km/h (4 Bft)
16.03.2013 08:28 2,1 C 1,2 C 74 % 1010,5 hPa 0,0 l/m 0 min 0 min 0,0 UV-I 83 W/m 28,3 km/h (4 Bft)
16.03.2013 08:30 2,1 C 1,2 C 74 % 1010,5 hPa 0,0 l/m 0 min 0 min 0,0 UV-I 83 W/m 23,2 km/h (4 Bft)
16.03.2013 08:32 2,1 C 1,2 C 74 % 1010,5 hPa 0,0 l/m 0 min 0 min 0,0 UV-I 88 W/m 20,6 km/h (4 Bft)
16.03.2013 08:34 2,1 C 1,2 C 73 % 1010,5 hPa 0,0 l/m 0 min 0 min 0,0 UV-I 91 W/m 18,0 km/h (3 Bft)
16.03.2013 08:36 2,2 C 1,2 C 73 % 1010,5 hPa 0,0 l/m 0 min 0 min 0,0 UV-I 98 W/m 20,6 km/h (4 Bft)
16.03.2013 08:38 2,2 C 1,8 C 74 % 1010,5 hPa 0,0 l/m 0 min 0 min 0,0 UV-I 113 W/m 12,9 km/h (3 Bft)
16.03.2013 08:40 2,2 C 1,8 C 74 % 1010,5 hPa 0,0 l/m 0 min 0 min 0,0 UV-I 116 W/m 18,0 km/h (3 Bft)
16.03.2013 08:42 2,2 C 1,8 C 74 % 1010,6 hPa 0,0 l/m 0 min 0 min 0,0 UV-I 116 W/m 23,2 km/h (4 Bft)
16.03.2013 08:44 2,3 C 1,8 C 74 % 1010,5 hPa 0,0 l/m 0 min 0 min 0,0 UV-I 118 W/m 23,2 km/h (4 Bft)
16.03.2013 08:46 2,3 C 1,8 C 73 % 1010,5 hPa 0,0 l/m 0 min 0 min 0,0 UV-I 116 W/m 20,6 km/h (4 Bft)
16.03.2013 08:48 2,3 C 1,8 C 73 % 1010,6 hPa 0,0 l/m 0 min 0 min 0,0 UV-I 116 W/m 18,0 km/h (3 Bft)
16.03.2013 08:50 2,3 C 1,8 C 73 % 1010,5 hPa 0,0 l/m 0 min 0 min 0,0 UV-I 116 W/m 23,2 km/h (4 Bft)
16.03.2013 08:52 2,3 C 1,8 C 73 % 1010,6 hPa 0,0 l/m 0 min 0 min 0,0 UV-I 118 W/m 15,4 km/h (3 Bft)
16.03.2013 08:54 2,4 C 1,8 C 73 % 1010,6 hPa 0,0 l/m 0 min 0 min 0,0 UV-I 120 W/m 20,6 km/h (4 Bft)
16.03.2013 08:56 2,4 C 1,8 C 73 % 1010,5 hPa 0,0 l/m 0 min 0 min 0,0 UV-I 137 W/m 15,4 km/h (3 Bft)
16.03.2013 08:58 2,4 C 1,8 C 73 % 1010,5 hPa 0,0 l/m 0 min 0 min 0,0 UV-I 162 W/m 15,4 km/h (3 Bft)
16.03.2013 09:00 2,5 C 1,8 C 73 % 1010,6 hPa 0,0 l/m 0 min 0 min 0,0 UV-I 137 W/m 18,0 km/h (3 Bft)
16.03.2013 09:02 2,5 C 1,8 C 73 % 1010,6 hPa 0,0 l/m 0 min 0 min 0,0 UV-I 135 W/m 18,0 km/h (3 Bft)
16.03.2013 09:04 2,6 C 1,8 C 73 % 1010,5 hPa 0,0 l/m 0 min 0 min 0,0 UV-I 178 W/m 18,0 km/h (3 Bft)
16.03.2013 09:06 2,6 C 1,8 C 73 % 1010,5 hPa 0,0 l/m 0 min 0 min 0,0 UV-I 153 W/m 18,0 km/h (3 Bft)
16.03.2013 09:08 2,7 C 2,3 C 72 % 1010,5 hPa 0,0 l/m 0 min 0 min 0,0 UV-I 144 W/m 23,2 km/h (4 Bft)
16.03.2013 09:10 2,7 C 2,3 C 72 % 1010,5 hPa 0,0 l/m 0 min 0 min 0,0 UV-I 141 W/m 23,2 km/h (4 Bft)
16.03.2013 09:12 2,7 C 2,3 C 72 % 1010,5 hPa 0,0 l/m 0 min 0 min 0,0 UV-I 144 W/m 18,0 km/h (3 Bft)
16.03.2013 09:14 2,8 C 2,3 C 72 % 1010,5 hPa 0,0 l/m 0 min 0 min 0,0 UV-I 158 W/m 18,0 km/h (3 Bft)
16.03.2013 09:16 2,8 C 2,3 C 72 % 1010,4 hPa 0,0 l/m 0 min 0 min 0,0 UV-I 186 W/m 23,2 km/h (4 Bft)
16.03.2013 09:18 2,8 C 2,3 C 72 % 1010,4 hPa 0,0 l/m 0 min 0 min 0,0 UV-I 183 W/m 20,6 km/h (4 Bft)
16.03.2013 09:20 2,9 C 2,3 C 72 % 1010,4 hPa 0,0 l/m 0 min 0 min 0,0 UV-I 171 W/m 12,9 km/h (3 Bft)
16.03.2013 09:22 2,9 C 2,3 C 72 % 1010,4 hPa 0,0 l/m 0 min 0 min 0,0 UV-I 167 W/m 15,4 km/h (3 Bft)
16.03.2013 09:24 3,0 C 2,3 C 72 % 1010,4 hPa 0,0 l/m 0 min 0 min 0,0 UV-I 163 W/m 23,2 km/h (4 Bft)
16.03.2013 09:26 3,1 C 2,3 C 72 % 1010,4 hPa 0,0 l/m 0 min 0 min 0,0 UV-I 151 W/m 20,6 km/h (4 Bft)
16.03.2013 09:28 3,1 C 2,3 C 71 % 1010,4 hPa 0,0 l/m 0 min 0 min 0,0 UV-I 149 W/m 28,3 km/h (4 Bft)
16.03.2013 09:30 3,1 C 2,3 C 71 % 1010,4 hPa 0,0 l/m 0 min 0 min 0,0 UV-I 148 W/m 20,6 km/h (4 Bft)
16.03.2013 09:32 3,1 C 2,9 C 71 % 1010,5 hPa 0,0 l/m 0 min 0 min 0,0 UV-I 144 W/m 15,4 km/h (3 Bft)
16.03.2013 09:34 3,2 C 2,9 C 71 % 1010,4 hPa 0,0 l/m 0 min 0 min 0,0 UV-I 146 W/m 12,9 km/h (3 Bft)
16.03.2013 09:36 3,2 C 2,9 C 72 % 1010,4 hPa 0,0 l/m 0 min 0 min 0,0 UV-I 149 W/m 18,0 km/h (3 Bft)
16.03.2013 09:38 3,2 C 2,9 C 71 % 1010,3 hPa 0,0 l/m 0 min 0 min 0,0 UV-I 158 W/m 12,9 km/h (3 Bft)
16.03.2013 09:40 3,3 C 2,9 C 72 % 1010,4 hPa 0,0 l/m 0 min 0 min 0,0 UV-I 169 W/m 12,9 km/h (3 Bft)
16.03.2013 09:42 3,3 C 2,9 C 71 % 1010,4 hPa 0,0 l/m 0 min 0 min 0,0 UV-I 174 W/m 20,6 km/h (4 Bft)
16.03.2013 09:44 3,3 C 2,9 C 71 % 1010,4 hPa 0,0 l/m 0 min 0 min 0,0 UV-I 190 W/m 23,2 km/h (4 Bft)
16.03.2013 09:46 3,4 C 2,9 C 71 % 1010,4 hPa 0,0 l/m 0 min 0 min 0,0 UV-I 190 W/m 23,2 km/h (4 Bft)
16.03.2013 09:48 3,4 C 2,9 C 70 % 1010,4 hPa 0,0 l/m 0 min 0 min 0,0 UV-I 183 W/m 23,2 km/h (4 Bft)
16.03.2013 09:50 3,5 C 2,9 C 70 % 1010,4 hPa 0,0 l/m 0 min 0 min 0,0 UV-I 186 W/m 33,5 km/h (5 Bft)
16.03.2013 09:52 3,5 C 2,9 C 70 % 1010,4 hPa 0,0 l/m 0 min 0 min 0,0 UV-I 193 W/m 23,2 km/h (4 Bft)
16.03.2013 09:54 3,6 C 2,9 C 70 % 1010,4 hPa 0,0 l/m 0 min 0 min 0,0 UV-I 193 W/m 20,6 km/h (4 Bft)
16.03.2013 09:56 3,6 C 3,4 C 70 % 1010,4 hPa 0,0 l/m 0 min 0 min 0,0 UV-I 192 W/m 25,7 km/h (4 Bft)
16.03.2013 09:58 3,6 C 2,9 C 69 % 1010,4 hPa 0,0 l/m 0 min 0 min 0,0 UV-I 192 W/m 25,7 km/h (4 Bft)
16.03.2013 10:00 3,7 C 2,9 C 69 % 1010,4 hPa 0,0 l/m 0 min 0 min 0,0 UV-I 211 W/m 23,2 km/h (4 Bft)
16.03.2013 10:02 3,7 C 3,4 C 68 % 1010,4 hPa 0,0 l/m 0 min 0 min 0,0 UV-I 218 W/m 15,4 km/h (3 Bft)
16.03.2013 10:04 3,7 C 3,4 C 68 % 1010,4 hPa 0,0 l/m 0 min 0 min 0,0 UV-I 229 W/m 30,9 km/h (5 Bft)
16.03.2013 10:06 3,7 C 3,4 C 68 % 1010,4 hPa 0,0 l/m 0 min 0 min 0,0 UV-I 241 W/m 12,9 km/h (3 Bft)
16.03.2013 10:08 3,8 C 3,4 C 68 % 1010,3 hPa 0,0 l/m 0 min 0 min 0,0 UV-I 246 W/m 30,9 km/h (5 Bft)
16.03.2013 10:10 3,8 C 3,4 C 67 % 1010,3 hPa 0,0 l/m 0 min 0 min 0,0 UV-I 218 W/m 33,5 km/h (5 Bft)
16.03.2013 10:12 3,8 C 3,4 C 68 % 1010,4 hPa 0,0 l/m 0 min 0 min 0,0 UV-I 214 W/m 25,7 km/h (4 Bft)
16.03.2013 10:14 3,8 C 3,4 C 68 % 1010,4 hPa 0,0 l/m 0 min 0 min 0,0 UV-I 216 W/m 30,9 km/h (5 Bft)
16.03.2013 10:16 3,9 C 4,0 C 68 % 1010,2 hPa 0,0 l/m 0 min 0 min 0,0 UV-I 213 W/m 18,0 km/h (3 Bft)
16.03.2013 10:18 3,9 C 3,4 C 67 % 1010,3 hPa 0,0 l/m 0 min 0 min 0,0 UV-I 211 W/m 28,3 km/h (4 Bft)
16.03.2013 10:20 3,9 C 3,4 C 66 % 1010,2 hPa 0,0 l/m 0 min 0 min 0,0 UV-I 206 W/m 30,9 km/h (5 Bft)
16.03.2013 10:22 3,9 C 3,4 C 67 % 1010,2 hPa 0,0 l/m 0 min 0 min 0,0 UV-I 204 W/m 28,3 km/h (4 Bft)
16.03.2013 10:24 4,0 C 3,4 C 67 % 1010,2 hPa 0,0 l/m 0 min 0 min 0,0 UV-I 209 W/m 28,3 km/h (4 Bft)
16.03.2013 10:26 4,0 C 3,4 C 67 % 1010,2 hPa 0,0 l/m 0 min 0 min 0,0 UV-I 211 W/m 18,0 km/h (3 Bft)
16.03.2013 10:28 4,1 C 4,0 C 67 % 1010,2 hPa 0,0 l/m 0 min 0 min 0,0 UV-I 220 W/m 33,5 km/h (5 Bft)
16.03.2013 10:30 4,1 C 4,0 C 67 % 1010,2 hPa 0,0 l/m 0 min 0 min 0,0 UV-I 230 W/m 25,7 km/h (4 Bft)
16.03.2013 10:32 4,1 C 4,0 C 67 % 1010,1 hPa 0,0 l/m 0 min 0 min 0,0 UV-I 232 W/m 33,5 km/h (5 Bft)
16.03.2013 10:34 4,2 C 4,0 C 67 % 1010,2 hPa 0,0 l/m 0 min 0 min 0,0 UV-I 234 W/m 25,7 km/h (4 Bft)
16.03.2013 10:36 4,2 C 4,0 C 66 % 1010,2 hPa 0,0 l/m 0 min 0 min 0,0 UV-I 246 W/m 28,3 km/h (4 Bft)
16.03.2013 10:38 4,2 C 4,0 C 66 % 1010,1 hPa 0,0 l/m 0 min 0 min 0,0 UV-I 258 W/m 23,2 km/h (4 Bft)
16.03.2013 10:40 4,3 C 4,0 C 66 % 1010,2 hPa 0,0 l/m 0 min 0 min 0,0 UV-I 274 W/m 33,5 km/h (5 Bft)
16.03.2013 10:42 4,3 C 4,0 C 66 % 1010,2 hPa 0,0 l/m 0 min 0 min 0,0 UV-I 279 W/m 28,3 km/h (4 Bft)
16.03.2013 10:44 4,3 C 4,0 C 66 % 1010,1 hPa 0,0 l/m 0 min 0 min 0,0 UV-I 274 W/m 30,9 km/h (5 Bft)
16.03.2013 10:46 4,4 C 4,0 C 66 % 1010,1 hPa 0,0 l/m 0 min 0 min 0,0 UV-I 272 W/m 25,7 km/h (4 Bft)
16.03.2013 10:48 4,4 C 4,0 C 66 % 1010,1 hPa 0,0 l/m 2 min 0 min 0,0 UV-I 295 W/m 28,3 km/h (4 Bft)
16.03.2013 10:50 4,5 C 4,6 C 66 % 1010,0 hPa 0,0 l/m 2 min 0 min 0,0 UV-I 306 W/m 28,3 km/h (4 Bft)
16.03.2013 10:52 4,6 C 4,6 C 66 % 1010,0 hPa 0,0 l/m 0 min 0 min 0,0 UV-I 288 W/m 25,7 km/h (4 Bft)
16.03.2013 10:54 4,7 C 4,6 C 66 % 1010,0 hPa 0,0 l/m 0 min 0 min 0,0 UV-I 276 W/m 25,7 km/h (4 Bft)
16.03.2013 10:56 4,7 C 4,6 C 66 % 1009,9 hPa 0,0 l/m 0 min 0 min 0,0 UV-I 264 W/m 18,0 km/h (3 Bft)
16.03.2013 10:58 4,8 C 4,6 C 66 % 1009,9 hPa 0,0 l/m 0 min 0 min 0,0 UV-I 267 W/m 23,2 km/h (4 Bft)
16.03.2013 11:00 4,8 C 4,6 C 65 % 1009,8 hPa 0,0 l/m 0 min 0 min 0,0 UV-I 285 W/m 25,7 km/h (4 Bft)
16.03.2013 11:02 4,9 C 4,6 C 64 % 1009,8 hPa 0,0 l/m 2 min 0 min 0,0 UV-I 302 W/m 30,9 km/h (5 Bft)
16.03.2013 11:04 4,9 C 4,6 C 64 % 1009,8 hPa 0,0 l/m 0 min 0 min 0,0 UV-I 299 W/m 23,2 km/h (4 Bft)
16.03.2013 11:06 4,9 C 5,1 C 65 % 1009,8 hPa 0,0 l/m 0 min 0 min 0,0 UV-I 302 W/m 18,0 km/h (3 Bft)
16.03.2013 11:08 5,0 C 5,1 C 65 % 1009,8 hPa 0,0 l/m 2 min 0 min 0,0 UV-I 309 W/m 20,6 km/h (4 Bft)
16.03.2013 11:10 5,1 C 5,1 C 65 % 1009,7 hPa 0,0 l/m 2 min 0 min 0,0 UV-I 320 W/m 18,0 km/h (3 Bft)
16.03.2013 11:12 5,1 C 5,1 C 65 % 1009,8 hPa 0,0 l/m 2 min 0 min 0,0 UV-I 327 W/m 15,4 km/h (3 Bft)
16.03.2013 11:14 5,2 C 5,7 C 64 % 1009,8 hPa 0,0 l/m 2 min 0 min 0,0 UV-I 330 W/m 18,0 km/h (3 Bft)
16.03.2013 11:16 5,3 C 5,7 C 65 % 1009,8 hPa 0,0 l/m 2 min 0 min 0,5 UV-I 350 W/m 18,0 km/h (3 Bft)
16.03.2013 11:18 5,3 C 5,7 C 64 % 1009,8 hPa 0,0 l/m 2 min 0 min 0,0 UV-I 315 W/m 30,9 km/h (5 Bft)
16.03.2013 11:20 5,4 C 5,7 C 63 % 1009,8 hPa 0,0 l/m 2 min 0 min 0,0 UV-I 334 W/m 38,6 km/h (5 Bft)
16.03.2013 11:22 5,4 C 5,7 C 63 % 1009,7 hPa 0,0 l/m 2 min 0 min 0,5 UV-I 345 W/m 30,9 km/h (5 Bft)
16.03.2013 11:24 5,5 C 5,7 C 63 % 1009,8 hPa 0,0 l/m 0 min 0 min 0,0 UV-I 308 W/m 36,0 km/h (5 Bft)
16.03.2013 11:26 5,6 C 5,7 C 62 % 1009,7 hPa 0,0 l/m 0 min 0 min 0,0 UV-I 278 W/m 28,3 km/h (4 Bft)
16.03.2013 11:28 5,6 C 5,1 C 63 % 1009,7 hPa 0,0 l/m 0 min 0 min 0,0 UV-I 292 W/m 23,2 km/h (4 Bft)
16.03.2013 11:30 5,6 C 5,7 C 63 % 1009,7 hPa 0,0 l/m 2 min 0 min 0,5 UV-I 360 W/m 20,6 km/h (4 Bft)
16.03.2013 11:32 5,6 C 5,7 C 63 % 1009,7 hPa 0,0 l/m 2 min 0 min 0,5 UV-I 367 W/m 28,3 km/h (4 Bft)
16.03.2013 11:34 5,7 C 5,7 C 64 % 1009,6 hPa 0,0 l/m 2 min 0 min 0,5 UV-I 339 W/m 18,0 km/h (3 Bft)
16.03.2013 11:36 5,7 C 6,2 C 64 % 1009,7 hPa 0,0 l/m 2 min 0 min 0,5 UV-I 350 W/m 18,0 km/h (3 Bft)
16.03.2013 11:38 5,8 C 6,2 C 64 % 1009,7 hPa 0,0 l/m 2 min 0 min 0,5 UV-I 336 W/m 15,4 km/h (3 Bft)
16.03.2013 11:40 5,9 C 6,2 C 65 % 1009,7 hPa 0,0 l/m 0 min 0 min 0,5 UV-I 313 W/m 10,3 km/h (2 Bft)
16.03.2013 11:42 6,0 C 6,2 C 63 % 1009,6 hPa 0,0 l/m 0 min 0 min 0,0 UV-I 311 W/m 33,5 km/h (5 Bft)
16.03.2013 11:44 6,1 C 6,2 C 63 % 1009,6 hPa 0,0 l/m 0 min 0 min 0,5 UV-I 323 W/m 28,3 km/h (4 Bft)
16.03.2013 11:46 6,1 C 6,2 C 63 % 1009,6 hPa 0,0 l/m 2 min 0 min 0,5 UV-I 352 W/m 20,6 km/h (4 Bft)
16.03.2013 11:48 6,2 C 6,2 C 63 % 1009,6 hPa 0,0 l/m 2 min 0 min 0,5 UV-I 353 W/m 23,2 km/h (4 Bft)
16.03.2013 11:50 6,2 C 6,2 C 63 % 1009,6 hPa 0,0 l/m 2 min 0 min 0,6 UV-I 366 W/m 30,9 km/h (5 Bft)
16.03.2013 11:52 6,3 C 6,2 C 63 % 1009,6 hPa 0,0 l/m 2 min 0 min 0,6 UV-I 374 W/m 23,2 km/h (4 Bft)
16.03.2013 11:54 6,3 C 6,2 C 63 % 1009,5 hPa 0,0 l/m 2 min 0 min 0,6 UV-I 364 W/m 20,6 km/h (4 Bft)
16.03.2013 11:56 6,4 C 6,2 C 62 % 1009,5 hPa 0,0 l/m 2 min 0 min 0,5 UV-I 329 W/m 20,6 km/h (4 Bft)
16.03.2013 11:58 6,4 C 6,2 C 62 % 1009,5 hPa 0,0 l/m 2 min 0 min 0,6 UV-I 364 W/m 36,0 km/h (5 Bft)
16.03.2013 12:00 6,4 C 6,2 C 62 % 1009,5 hPa 0,0 l/m 2 min 0 min 0,6 UV-I 357 W/m 28,3 km/h (4 Bft)
16.03.2013 12:02 6,5 C 6,2 C 62 % 1009,5 hPa 0,0 l/m 2 min 0 min 0,6 UV-I 352 W/m 25,7 km/h (4 Bft)
16.03.2013 12:04 6,5 C 6,2 C 61 % 1009,5 hPa 0,0 l/m 2 min 0 min 0,7 UV-I 403 W/m 23,2 km/h (4 Bft)
16.03.2013 12:06 6,6 C 6,2 C 62 % 1009,5 hPa 0,0 l/m 2 min 0 min 0,7 UV-I 408 W/m 30,9 km/h (5 Bft)
16.03.2013 12:08 6,6 C 6,2 C 61 % 1009,4 hPa 0,0 l/m 2 min 0 min 0,7 UV-I 392 W/m 28,3 km/h (4 Bft)
16.03.2013 12:10 6,6 C 6,2 C 61 % 1009,4 hPa 0,0 l/m 2 min 0 min 0,8 UV-I 413 W/m 30,9 km/h (5 Bft)
16.03.2013 12:12 6,6 C 6,2 C 61 % 1009,4 hPa 0,0 l/m 2 min 0 min 0,8 UV-I 432 W/m 28,3 km/h (4 Bft)
16.03.2013 12:14 6,6 C 6,8 C 61 % 1009,3 hPa 0,0 l/m 2 min 0 min 0,8 UV-I 420 W/m 25,7 km/h (4 Bft)
16.03.2013 12:16 6,7 C 6,8 C 61 % 1009,2 hPa 0,0 l/m 2 min 0 min 0,7 UV-I 396 W/m 30,9 km/h (5 Bft)
16.03.2013 12:18 6,7 C 6,8 C 61 % 1009,2 hPa 0,0 l/m 2 min 0 min 0,7 UV-I 404 W/m 28,3 km/h (4 Bft)
16.03.2013 12:20 6,7 C 6,8 C 60 % 1009,4 hPa 0,0 l/m 2 min 0 min 0,7 UV-I 401 W/m 30,9 km/h (5 Bft)
16.03.2013 12:22 6,7 C 6,2 C 60 % 1009,2 hPa 0,0 l/m 2 min 0 min 0,7 UV-I 374 W/m 25,7 km/h (4 Bft)
16.03.2013 12:24 6,7 C 6,2 C 60 % 1009,3 hPa 0,0 l/m 2 min 0 min 0,7 UV-I 392 W/m 30,9 km/h (5 Bft)
16.03.2013 12:26 6,7 C 6,8 C 60 % 1009,3 hPa 0,0 l/m 2 min 0 min 0,8 UV-I 431 W/m 36,0 km/h (5 Bft)
16.03.2013 12:28 6,7 C 6,8 C 60 % 1009,3 hPa 0,0 l/m 2 min 0 min 0,9 UV-I 459 W/m 38,6 km/h (5 Bft)
16.03.2013 12:30 6,7 C 6,8 C 60 % 1009,2 hPa 0,0 l/m 2 min 0 min 0,9 UV-I 454 W/m 41,2 km/h (6 Bft)
16.03.2013 12:32 6,8 C 6,8 C 60 % 1009,2 hPa 0,0 l/m 2 min 0 min 0,9 UV-I 462 W/m 36,0 km/h (5 Bft)
16.03.2013 12:34 6,8 C 6,8 C 60 % 1009,2 hPa 0,0 l/m 2 min 0 min 1,0 UV-I 512 W/m 25,7 km/h (4 Bft)
16.03.2013 12:36 6,9 C 6,8 C 59 % 1009,3 hPa 0,0 l/m 2 min 0 min 1,0 UV-I 515 W/m 33,5 km/h (5 Bft)
16.03.2013 12:38 6,9 C 6,8 C 59 % 1009,2 hPa 0,0 l/m 2 min 0 min 0,9 UV-I 473 W/m 25,7 km/h (4 Bft)
16.03.2013 12:40 7,0 C 7,3 C 60 % 1009,2 hPa 0,0 l/m 2 min 0 min 0,9 UV-I 485 W/m 30,9 km/h (5 Bft)
16.03.2013 12:42 7,1 C 7,3 C 60 % 1009,2 hPa 0,0 l/m 2 min 0 min 0,8 UV-I 438 W/m 33,5 km/h (5 Bft)
16.03.2013 12:44 7,1 C 6,8 C 60 % 1009,2 hPa 0,0 l/m 2 min 0 min 0,8 UV-I 422 W/m 36,0 km/h (5 Bft)
16.03.2013 12:46 7,2 C 7,3 C 60 % 1009,1 hPa 0,0 l/m 2 min 0 min 0,8 UV-I 441 W/m 25,7 km/h (4 Bft)
16.03.2013 12:48 7,2 C 6,8 C 60 % 1009,1 hPa 0,0 l/m 2 min 0 min 0,9 UV-I 455 W/m 28,3 km/h (4 Bft)
16.03.2013 12:50 7,2 C 6,8 C 59 % 1009,1 hPa 0,0 l/m 2 min 0 min 0,9 UV-I 450 W/m 36,0 km/h (5 Bft)
16.03.2013 12:52 7,3 C 7,3 C 59 % 1009,1 hPa 0,0 l/m 2 min 0 min 1,0 UV-I 494 W/m 28,3 km/h (4 Bft)
16.03.2013 12:54 7,3 C 6,8 C 59 % 1009,1 hPa 0,0 l/m 2 min 0 min 0,9 UV-I 461 W/m 38,6 km/h (5 Bft)
16.03.2013 12:56 7,3 C 6,8 C 59 % 1009,1 hPa 0,0 l/m 2 min 0 min 0,8 UV-I 431 W/m 30,9 km/h (5 Bft)
16.03.2013 12:58 7,3 C 6,8 C 58 % 1009,0 hPa 0,0 l/m 2 min 0 min 0,8 UV-I 427 W/m 33,5 km/h (5 Bft)
16.03.2013 13:00 7,3 C 6,8 C 58 % 1008,9 hPa 0,0 l/m 2 min 0 min 0,8 UV-I 425 W/m 28,3 km/h (4 Bft)
16.03.2013 13:02 7,3 C 6,8 C 59 % 1008,9 hPa 0,0 l/m 2 min 0 min 0,9 UV-I 457 W/m 36,0 km/h (5 Bft)
16.03.2013 13:04 7,4 C 6,8 C 58 % 1008,8 hPa 0,0 l/m 2 min 0 min 1,0 UV-I 513 W/m 28,3 km/h (4 Bft)
16.03.2013 13:06 7,4 C 7,3 C 59 % 1008,8 hPa 0,0 l/m 2 min 0 min 1,0 UV-I 512 W/m 38,6 km/h (5 Bft)
16.03.2013 13:08 7,5 C 7,3 C 58 % 1008,7 hPa 0,0 l/m 2 min 0 min 1,0 UV-I 522 W/m 36,0 km/h (5 Bft)
16.03.2013 13:10 7,5 C 7,3 C 58 % 1008,7 hPa 0,0 l/m 2 min 0 min 1,1 UV-I 566 W/m 30,9 km/h (5 Bft)
16.03.2013 13:12 7,6 C 7,3 C 59 % 1008,7 hPa 0,0 l/m 2 min 0 min 1,1 UV-I 559 W/m 28,3 km/h (4 Bft)
16.03.2013 13:14 7,7 C 7,3 C 58 % 1008,6 hPa 0,0 l/m 2 min 0 min 1,1 UV-I 540 W/m 28,3 km/h (4 Bft)
16.03.2013 13:16 7,7 C 7,9 C 59 % 1008,7 hPa 0,0 l/m 2 min 0 min 1,0 UV-I 490 W/m 23,2 km/h (4 Bft)
16.03.2013 13:18 7,8 C 7,9 C 59 % 1008,6 hPa 0,0 l/m 2 min 0 min 0,8 UV-I 452 W/m 30,9 km/h (5 Bft)
16.03.2013 13:20 7,9 C 7,9 C 58 % 1008,6 hPa 0,0 l/m 2 min 0 min 0,6 UV-I 332 W/m 23,2 km/h (4 Bft)
16.03.2013 13:22 7,9 C 7,3 C 57 % 1008,6 hPa 0,0 l/m 0 min 0 min 0,6 UV-I 308 W/m 33,5 km/h (5 Bft)
16.03.2013 13:24 7,8 C 6,8 C 56 % 1008,6 hPa 0,0 l/m 0 min 0 min 0,5 UV-I 329 W/m 38,6 km/h (5 Bft)
16.03.2013 13:26 7,8 C 7,3 C 56 % 1008,5 hPa 0,0 l/m 2 min 0 min 0,6 UV-I 330 W/m 28,3 km/h (4 Bft)
16.03.2013 13:28 7,8 C 7,3 C 56 % 1008,5 hPa 0,0 l/m 2 min 0 min 0,7 UV-I 432 W/m 41,2 km/h (6 Bft)
16.03.2013 13:30 7,7 C 7,3 C 57 % 1008,5 hPa 0,0 l/m 2 min 0 min 1,0 UV-I 403 W/m 28,3 km/h (4 Bft)
16.03.2013 13:32 7,7 C 7,3 C 57 % 1008,5 hPa 0,0 l/m 2 min 0 min 1,0 UV-I 396 W/m 30,9 km/h (5 Bft)
16.03.2013 13:34 7,7 C 7,9 C 58 % 1008,4 hPa 0,0 l/m 2 min 0 min 0,9 UV-I 464 W/m 28,3 km/h (4 Bft)
16.03.2013 13:36 7,8 C 7,9 C 57 % 1008,4 hPa 0,0 l/m 2 min 0 min 1,2 UV-I 587 W/m 36,0 km/h (5 Bft)
16.03.2013 13:38 7,8 C 7,9 C 58 % 1008,4 hPa 0,0 l/m 2 min 0 min 0,9 UV-I 575 W/m 46,3 km/h (6 Bft)
16.03.2013 13:40 7,8 C 7,9 C 57 % 1008,4 hPa 0,0 l/m 2 min 0 min 0,6 UV-I 336 W/m 23,2 km/h (4 Bft)
16.03.2013 13:42 7,9 C 7,3 C 57 % 1008,4 hPa 0,0 l/m 2 min 0 min 0,6 UV-I 339 W/m 28,3 km/h (4 Bft)
16.03.2013 13:44 7,9 C 7,3 C 56 % 1008,3 hPa 0,0 l/m 2 min 0 min 0,8 UV-I 432 W/m 41,2 km/h (6 Bft)
16.03.2013 13:46 7,9 C 7,3 C 57 % 1008,3 hPa 0,0 l/m 2 min 0 min 0,8 UV-I 415 W/m 36,0 km/h (5 Bft)
16.03.2013 13:48 7,9 C 7,9 C 57 % 1008,1 hPa 0,0 l/m 2 min 0 min 0,8 UV-I 450 W/m 25,7 km/h (4 Bft)
16.03.2013 13:50 7,9 C 7,9 C 57 % 1008,2 hPa 0,0 l/m 2 min 0 min 0,7 UV-I 432 W/m 33,5 km/h (5 Bft)
16.03.2013 13:52 7,9 C 7,9 C 57 % 1008,0 hPa 0,0 l/m 2 min 0 min 0,7 UV-I 424 W/m 43,8 km/h (6 Bft)
16.03.2013 13:54 7,9 C 7,9 C 56 % 1008,1 hPa 0,0 l/m 2 min 0 min 0,7 UV-I 432 W/m 38,6 km/h (5 Bft)
16.03.2013 13:56 8,0 C 7,9 C 57 % 1008,0 hPa 0,0 l/m 2 min 0 min 0,7 UV-I 431 W/m 28,3 km/h (4 Bft)
16.03.2013 13:58 8,0 C 7,9 C 57 % 1008,0 hPa 0,0 l/m 2 min 0 min 0,7 UV-I 422 W/m 20,6 km/h (4 Bft)
16.03.2013 14:00 8,1 C 7,9 C 58 % 1008,0 hPa 0,0 l/m 2 min 0 min 0,6 UV-I 390 W/m 30,9 km/h (5 Bft)
16.03.2013 14:02 8,1 C 7,9 C 56 % 1007,9 hPa 0,0 l/m 2 min 0 min 0,5 UV-I 327 W/m 30,9 km/h (5 Bft)
16.03.2013 14:04 8,1 C 7,3 C 56 % 1007,9 hPa 0,0 l/m 0 min 0 min 0,0 UV-I 308 W/m 25,7 km/h (4 Bft)
16.03.2013 14:06 8,1 C 7,3 C 56 % 1007,8 hPa 0,0 l/m 0 min 0 min 0,0 UV-I 285 W/m 20,6 km/h (4 Bft)
16.03.2013 14:08 8,1 C 7,3 C 56 % 1007,7 hPa 0,0 l/m 0 min 0 min 0,0 UV-I 281 W/m 36,0 km/h (5 Bft)
16.03.2013 14:10 8,0 C 7,3 C 55 % 1007,8 hPa 0,0 l/m 0 min 0 min 0,0 UV-I 274 W/m 41,2 km/h (6 Bft)
16.03.2013 14:12 7,9 C 7,3 C 54 % 1007,8 hPa 0,0 l/m 0 min 0 min 0,0 UV-I 271 W/m 46,3 km/h (6 Bft)
16.03.2013 14:14 7,8 C 7,3 C 54 % 1007,7 hPa 0,0 l/m 0 min 0 min 0,0 UV-I 257 W/m 33,5 km/h (5 Bft)
16.03.2013 14:16 7,8 C 6,8 C 54 % 1007,7 hPa 0,0 l/m 0 min 0 min 0,0 UV-I 248 W/m 36,0 km/h (5 Bft)
16.03.2013 14:18 7,8 C 6,8 C 55 % 1007,7 hPa 0,0 l/m 0 min 0 min 0,0 UV-I 218 W/m 30,9 km/h (5 Bft)
16.03.2013 14:20 7,7 C 6,8 C 54 % 1007,7 hPa 0,0 l/m 0 min 0 min 0,0 UV-I 214 W/m 38,6 km/h (5 Bft)
16.03.2013 14:22 7,6 C 6,8 C 55 % 1007,6 hPa 0,0 l/m 0 min 0 min 0,0 UV-I 218 W/m 28,3 km/h (4 Bft)
16.03.2013 14:24 7,6 C 6,8 C 55 % 1007,7 hPa 0,0 l/m 0 min 0 min 0,0 UV-I 221 W/m 23,2 km/h (4 Bft)
16.03.2013 14:26 7,6 C 6,8 C 55 % 1007,7 hPa 0,0 l/m 0 min 0 min 0,0 UV-I 230 W/m 33,5 km/h (5 Bft)
16.03.2013 14:28 7,6 C 6,8 C 55 % 1007,7 hPa 0,0 l/m 0 min 0 min 0,0 UV-I 234 W/m 28,3 km/h (4 Bft)
16.03.2013 14:30 7,6 C 6,8 C 55 % 1007,6 hPa 0,0 l/m 0 min 0 min 0,0 UV-I 236 W/m 25,7 km/h (4 Bft)
16.03.2013 14:32 7,5 C 6,8 C 55 % 1007,6 hPa 0,0 l/m 0 min 0 min 0,0 UV-I 230 W/m 36,0 km/h (5 Bft)
16.03.2013 14:34 7,5 C 6,8 C 55 % 1007,6 hPa 0,0 l/m 0 min 0 min 0,0 UV-I 229 W/m 33,5 km/h (5 Bft)
16.03.2013 14:36 7,5 C 6,8 C 54 % 1007,6 hPa 0,0 l/m 0 min 0 min 0,0 UV-I 230 W/m 41,2 km/h (6 Bft)
16.03.2013 14:38 7,5 C 6,8 C 53 % 1007,6 hPa 0,0 l/m 0 min 0 min 0,0 UV-I 227 W/m 33,5 km/h (5 Bft)
16.03.2013 14:40 7,5 C 6,8 C 54 % 1007,7 hPa 0,0 l/m 0 min 0 min 0,0 UV-I 227 W/m 43,8 km/h (6 Bft)
16.03.2013 14:42 7,4 C 6,8 C 54 % 1007,6 hPa 0,0 l/m 0 min 0 min 0,0 UV-I 221 W/m 38,6 km/h (5 Bft)
16.03.2013 14:44 7,4 C 6,8 C 54 % 1007,6 hPa 0,0 l/m 0 min 0 min 0,0 UV-I 216 W/m 33,5 km/h (5 Bft)
16.03.2013 14:46 7,4 C 6,8 C 54 % 1007,6 hPa 0,0 l/m 0 min 0 min 0,0 UV-I 211 W/m 30,9 km/h (5 Bft)
16.03.2013 14:48 7,4 C 6,8 C 54 % 1007,5 hPa 0,0 l/m 0 min 0 min 0,0 UV-I 199 W/m 41,2 km/h (6 Bft)
16.03.2013 14:50 7,3 C 6,8 C 54 % 1007,5 hPa 0,0 l/m 0 min 0 min 0,0 UV-I 188 W/m 41,2 km/h (6 Bft)
16.03.2013 14:52 7,3 C 6,8 C 54 % 1007,4 hPa 0,0 l/m 0 min 0 min 0,0 UV-I 178 W/m 33,5 km/h (5 Bft)
16.03.2013 14:54 7,3 C 6,2 C 54 % 1007,5 hPa 0,0 l/m 0 min 0 min 0,0 UV-I 165 W/m 41,2 km/h (6 Bft)
16.03.2013 14:56 7,3 C 6,2 C 54 % 1007,4 hPa 0,0 l/m 0 min 0 min 0,0 UV-I 160 W/m 36,0 km/h (5 Bft)
16.03.2013 14:58 7,2 C 6,2 C 53 % 1007,3 hPa 0,0 l/m 0 min 0 min 0,0 UV-I 156 W/m 38,6 km/h (5 Bft)
16.03.2013 15:00 7,2 C 6,2 C 53 % 1007,4 hPa 0,0 l/m 0 min 0 min 0,0 UV-I 156 W/m 36,0 km/h (5 Bft)
16.03.2013 15:02 7,2 C 6,2 C 54 % 1007,5 hPa 0,0 l/m 0 min 0 min 0,0 UV-I 158 W/m 41,2 km/h (6 Bft)
16.03.2013 15:04 7,1 C 6,2 C 54 % 1007,3 hPa 0,0 l/m 0 min 0 min 0,0 UV-I 160 W/m 25,7 km/h (4 Bft)
16.03.2013 15:06 7,1 C 6,2 C 54 % 1007,4 hPa 0,0 l/m 0 min 0 min 0,0 UV-I 158 W/m 30,9 km/h (5 Bft)
16.03.2013 15:08 7,1 C 6,2 C 54 % 1007,4 hPa 0,0 l/m 0 min 0 min 0,0 UV-I 158 W/m 20,6 km/h (4 Bft)
16.03.2013 15:10 7,1 C 6,2 C 54 % 1007,3 hPa 0,0 l/m 0 min 0 min 0,0 UV-I 156 W/m 28,3 km/h (4 Bft)
16.03.2013 15:12 7,1 C 6,2 C 53 % 1007,4 hPa 0,0 l/m 0 min 0 min 0,0 UV-I 151 W/m 28,3 km/h (4 Bft)
16.03.2013 15:14 7,1 C 6,2 C 54 % 1007,3 hPa 0,0 l/m 0 min 0 min 0,0 UV-I 146 W/m 18,0 km/h (3 Bft)
16.03.2013 15:16 7,1 C 6,2 C 54 % 1007,2 hPa 0,0 l/m 0 min 0 min 0,0 UV-I 139 W/m 20,6 km/h (4 Bft)
16.03.2013 15:18 7,1 C 6,2 C 55 % 1007,2 hPa 0,0 l/m 0 min 0 min 0,0 UV-I 130 W/m 10,3 km/h (2 Bft)
16.03.2013 15:20 7,1 C 6,2 C 54 % 1007,1 hPa 0,0 l/m 0 min 0 min 0,0 UV-I 123 W/m 30,9 km/h (5 Bft)
16.03.2013 15:22 7,1 C 6,2 C 52 % 1007,2 hPa 0,0 l/m 0 min 0 min 0,0 UV-I 120 W/m 30,9 km/h (5 Bft)
16.03.2013 15:24 7,1 C 6,2 C 53 % 1007,1 hPa 0,0 l/m 0 min 0 min 0,0 UV-I 120 W/m 28,3 km/h (4 Bft)
16.03.2013 15:26 7,1 C 6,2 C 53 % 1007,1 hPa 0,0 l/m 0 min 0 min 0,0 UV-I 123 W/m 36,0 km/h (5 Bft)
16.03.2013 15:28 7,1 C 6,2 C 53 % 1007,1 hPa 0,0 l/m 0 min 0 min 0,0 UV-I 128 W/m 33,5 km/h (5 Bft)
16.03.2013 15:30 7,1 C 6,2 C 52 % 1007,2 hPa 0,0 l/m 0 min 0 min 0,0 UV-I 132 W/m 25,7 km/h (4 Bft)
16.03.2013 15:32 7,0 C 6,2 C 52 % 1007,0 hPa 0,0 l/m 0 min 0 min 0,0 UV-I 132 W/m 33,5 km/h (5 Bft)
16.03.2013 15:34 7,0 C 6,2 C 52 % 1007,1 hPa 0,0 l/m 0 min 0 min 0,0 UV-I 128 W/m 30,9 km/h (5 Bft)
16.03.2013 15:36 7,0 C 6,2 C 52 % 1007,0 hPa 0,0 l/m 0 min 0 min 0,0 UV-I 125 W/m 23,2 km/h (4 Bft)
16.03.2013 15:38 7,0 C 6,2 C 52 % 1007,0 hPa 0,0 l/m 0 min 0 min 0,0 UV-I 123 W/m 30,9 km/h (5 Bft)
16.03.2013 15:40 6,9 C 6,2 C 51 % 1007,0 hPa 0,0 l/m 0 min 0 min 0,0 UV-I 121 W/m 25,7 km/h (4 Bft)
16.03.2013 15:42 6,9 C 6,2 C 52 % 1006,9 hPa 0,0 l/m 0 min 0 min 0,0 UV-I 120 W/m 33,5 km/h (5 Bft)
16.03.2013 15:44 6,9 C 6,2 C 52 % 1007,0 hPa 0,0 l/m 0 min 0 min 0,0 UV-I 120 W/m 25,7 km/h (4 Bft)
16.03.2013 15:46 6,9 C 6,2 C 52 % 1007,0 hPa 0,0 l/m 0 min 0 min 0,0 UV-I 120 W/m 18,0 km/h (3 Bft)
16.03.2013 15:48 6,9 C 6,2 C 52 % 1006,9 hPa 0,0 l/m 0 min 0 min 0,0 UV-I 120 W/m 36,0 km/h (5 Bft)
16.03.2013 15:50 6,9 C 5,7 C 52 % 1006,9 hPa 0,0 l/m 0 min 0 min 0,0 UV-I 121 W/m 20,6 km/h (4 Bft)
16.03.2013 15:52 6,9 C 5,7 C 52 % 1006,8 hPa 0,0 l/m 0 min 0 min 0,0 UV-I 121 W/m 20,6 km/h (4 Bft)
16.03.2013 15:54 6,9 C 5,7 C 52 % 1006,8 hPa 0,0 l/m 0 min 0 min 0,0 UV-I 121 W/m 25,7 km/h (4 Bft)
16.03.2013 15:56 7,0 C 6,2 C 51 % 1006,7 hPa 0,0 l/m 0 min 0 min 0,0 UV-I 123 W/m 38,6 km/h (5 Bft)
16.03.2013 15:58 6,9 C 5,7 C 51 % 1006,6 hPa 0,0 l/m 0 min 0 min 0,0 UV-I 125 W/m 25,7 km/h (4 Bft)
16.03.2013 16:00 6,9 C 5,7 C 51 % 1006,7 hPa 0,0 l/m 0 min 0 min 0,0 UV-I 127 W/m 38,6 km/h (5 Bft)
16.03.2013 16:02 6,9 C 5,7 C 51 % 1006,7 hPa 0,0 l/m 0 min 0 min 0,0 UV-I 128 W/m 38,6 km/h (5 Bft)
16.03.2013 16:04 6,9 C 5,7 C 52 % 1006,6 hPa 0,0 l/m 0 min 0 min 0,0 UV-I 130 W/m 33,5 km/h (5 Bft)
16.03.2013 16:06 6,9 C 5,7 C 52 % 1006,6 hPa 0,0 l/m 0 min 0 min 0,0 UV-I 132 W/m 28,3 km/h (4 Bft)
16.03.2013 16:08 6,9 C 6,2 C 52 % 1006,6 hPa 0,0 l/m 0 min 0 min 0,0 UV-I 132 W/m 28,3 km/h (4 Bft)
16.03.2013 16:10 6,9 C 5,7 C 52 % 1006,6 hPa 0,0 l/m 0 min 0 min 0,0 UV-I 128 W/m 30,9 km/h (5 Bft)
16.03.2013 16:12 6,9 C 5,7 C 53 % 1006,5 hPa 0,0 l/m 0 min 0 min 0,0 UV-I 127 W/m 25,7 km/h (4 Bft)
16.03.2013 16:14 6,9 C 5,7 C 52 % 1006,5 hPa 0,0 l/m 0 min 0 min 0,0 UV-I 123 W/m 25,7 km/h (4 Bft)
16.03.2013 16:16 6,9 C 5,7 C 52 % 1006,4 hPa 0,0 l/m 0 min 0 min 0,0 UV-I 114 W/m 30,9 km/h (5 Bft)
16.03.2013 16:18 6,9 C 5,7 C 52 % 1006,3 hPa 0,0 l/m 0 min 0 min 0,0 UV-I 107 W/m 30,9 km/h (5 Bft)
16.03.2013 16:20 6,9 C 5,7 C 51 % 1006,3 hPa 0,0 l/m 0 min 0 min 0,0 UV-I 102 W/m 30,9 km/h (5 Bft)
16.03.2013 16:22 6,9 C 5,7 C 49 % 1006,2 hPa 0,0 l/m 0 min 0 min 0,0 UV-I 91 W/m 56,6 km/h (7 Bft)
16.03.2013 16:24 6,9 C 5,7 C 50 % 1006,2 hPa 0,0 l/m 0 min 0 min 0,0 UV-I 88 W/m 25,7 km/h (4 Bft)
16.03.2013 16:26 6,9 C 5,7 C 50 % 1006,2 hPa 0,0 l/m 0 min 0 min 0,0 UV-I 86 W/m 28,3 km/h (4 Bft)
16.03.2013 16:28 6,8 C 5,7 C 49 % 1006,1 hPa 0,0 l/m 0 min 0 min 0,0 UV-I 86 W/m 30,9 km/h (5 Bft)
16.03.2013 16:30 6,8 C 5,7 C 49 % 1006,1 hPa 0,0 l/m 0 min 0 min 0,0 UV-I 90 W/m 23,2 km/h (4 Bft)
16.03.2013 16:32 6,8 C 5,7 C 49 % 1006,2 hPa 0,0 l/m 0 min 0 min 0,0 UV-I 97 W/m 30,9 km/h (5 Bft)
16.03.2013 16:34 6,8 C 5,7 C 50 % 1006,1 hPa 0,0 l/m 0 min 0 min 0,0 UV-I 107 W/m 30,9 km/h (5 Bft)
16.03.2013 16:36 6,8 C 5,7 C 50 % 1006,1 hPa 0,0 l/m 0 min 0 min 0,0 UV-I 114 W/m 23,2 km/h (4 Bft)
16.03.2013 16:38 6,8 C 5,7 C 49 % 1006,2 hPa 0,0 l/m 0 min 0 min 0,0 UV-I 116 W/m 41,2 km/h (6 Bft)
16.03.2013 16:40 6,7 C 5,7 C 49 % 1006,1 hPa 0,0 l/m 0 min 0 min 0,0 UV-I 113 W/m 36,0 km/h (5 Bft)
16.03.2013 16:42 6,7 C 5,7 C 50 % 1006,0 hPa 0,0 l/m 0 min 0 min 0,0 UV-I 109 W/m 33,5 km/h (5 Bft)
16.03.2013 16:44 6,7 C 5,7 C 49 % 1006,0 hPa 0,0 l/m 0 min 0 min 0,0 UV-I 102 W/m 36,0 km/h (5 Bft)
16.03.2013 16:46 6,7 C 5,7 C 50 % 1006,0 hPa 0,0 l/m 0 min 0 min 0,0 UV-I 97 W/m 25,7 km/h (4 Bft)
16.03.2013 16:48 6,7 C 5,7 C 49 % 1006,0 hPa 0,0 l/m 0 min 0 min 0,0 UV-I 93 W/m 36,0 km/h (5 Bft)
16.03.2013 16:50 6,7 C 5,7 C 49 % 1006,1 hPa 0,0 l/m 0 min 0 min 0,0 UV-I 91 W/m 36,0 km/h (5 Bft)
16.03.2013 16:52 6,7 C 5,7 C 49 % 1006,0 hPa 0,0 l/m 0 min 0 min 0,0 UV-I 90 W/m 23,2 km/h (4 Bft)
16.03.2013 16:54 6,7 C 5,1 C 50 % 1006,0 hPa 0,0 l/m 0 min 0 min 0,0 UV-I 90 W/m 25,7 km/h (4 Bft)
16.03.2013 16:56 6,7 C 5,1 C 50 % 1006,0 hPa 0,0 l/m 0 min 0 min 0,0 UV-I 93 W/m 30,9 km/h (5 Bft)
16.03.2013 16:58 6,6 C 5,1 C 49 % 1006,0 hPa 0,0 l/m 0 min 0 min 0,0 UV-I 91 W/m 30,9 km/h (5 Bft)
16.03.2013 17:00 6,6 C 5,1 C 48 % 1005,9 hPa 0,0 l/m 0 min 0 min 0,0 UV-I 90 W/m 38,6 km/h (5 Bft)
16.03.2013 17:02 6,6 C 5,1 C 48 % 1005,9 hPa 0,0 l/m 0 min 0 min 0,0 UV-I 90 W/m 33,5 km/h (5 Bft)
16.03.2013 17:04 6,6 C 5,1 C 49 % 1005,9 hPa 0,0 l/m 0 min 0 min 0,0 UV-I 90 W/m 30,9 km/h (5 Bft)
16.03.2013 17:06 6,6 C 5,1 C 49 % 1005,9 hPa 0,0 l/m 0 min 0 min 0,0 UV-I 91 W/m 25,7 km/h (4 Bft)
16.03.2013 17:08 6,6 C 5,1 C 49 % 1005,9 hPa 0,0 l/m 0 min 0 min 0,0 UV-I 90 W/m 36,0 km/h (5 Bft)
16.03.2013 17:10 6,6 C 5,1 C 49 % 1005,9 hPa 0,0 l/m 0 min 0 min 0,0 UV-I 88 W/m 33,5 km/h (5 Bft)
16.03.2013 17:12 6,6 C 5,1 C 49 % 1005,8 hPa 0,0 l/m 0 min 0 min 0,0 UV-I 86 W/m 18,0 km/h (3 Bft)
16.03.2013 17:14 6,5 C 5,1 C 50 % 1005,7 hPa 0,0 l/m 0 min 0 min 0,0 UV-I 83 W/m 20,6 km/h (4 Bft)
16.03.2013 17:16 6,5 C 5,1 C 49 % 1005,7 hPa 0,0 l/m 0 min 0 min 0,0 UV-I 83 W/m 33,5 km/h (5 Bft)
16.03.2013 17:18 6,5 C 5,1 C 49 % 1005,7 hPa 0,0 l/m 0 min 0 min 0,0 UV-I 81 W/m 36,0 km/h (5 Bft)
16.03.2013 17:20 6,5 C 5,1 C 49 % 1005,7 hPa 0,0 l/m 0 min 0 min 0,0 UV-I 79 W/m 25,7 km/h (4 Bft)
16.03.2013 17:22 6,4 C 5,1 C 50 % 1005,7 hPa 0,0 l/m 0 min 0 min 0,0 UV-I 77 W/m 36,0 km/h (5 Bft)
16.03.2013 17:24 6,4 C 5,1 C 49 % 1005,7 hPa 0,0 l/m 0 min 0 min 0,0 UV-I 74 W/m 41,2 km/h (6 Bft)
16.03.2013 17:26 6,4 C 5,1 C 48 % 1005,6 hPa 0,0 l/m 0 min 0 min 0,0 UV-I 70 W/m 33,5 km/h (5 Bft)
16.03.2013 17:28 6,4 C 4,6 C 49 % 1005,6 hPa 0,0 l/m 0 min 0 min 0,0 UV-I 69 W/m 36,0 km/h (5 Bft)
16.03.2013 17:30 6,4 C 4,6 C 49 % 1005,6 hPa 0,0 l/m 0 min 0 min 0,0 UV-I 67 W/m 33,5 km/h (5 Bft)
16.03.2013 17:32 6,4 C 4,6 C 49 % 1005,6 hPa 0,0 l/m 0 min 0 min 0,0 UV-I 63 W/m 41,2 km/h (6 Bft)
16.03.2013 17:34 6,3 C 4,6 C 49 % 1005,6 hPa 0,0 l/m 0 min 0 min 0,0 UV-I 62 W/m 33,5 km/h (5 Bft)
16.03.2013 17:36 6,3 C 4,6 C 50 % 1005,5 hPa 0,0 l/m 0 min 0 min 0,0 UV-I 60 W/m 20,6 km/h (4 Bft)
16.03.2013 17:38 6,3 C 4,6 C 50 % 1005,5 hPa 0,0 l/m 0 min 0 min 0,0 UV-I 60 W/m 41,2 km/h (6 Bft)
16.03.2013 17:40 6,3 C 4,6 C 50 % 1005,5 hPa 0,0 l/m 0 min 0 min 0,0 UV-I 58 W/m 33,5 km/h (5 Bft)
16.03.2013 17:42 6,2 C 4,6 C 50 % 1005,4 hPa 0,0 l/m 0 min 0 min 0,0 UV-I 56 W/m 20,6 km/h (4 Bft)
16.03.2013 17:44 6,2 C 4,6 C 50 % 1005,4 hPa 0,0 l/m 0 min 0 min 0,0 UV-I 54 W/m 25,7 km/h (4 Bft)
16.03.2013 17:46 6,2 C 4,6 C 50 % 1005,4 hPa 0,0 l/m 0 min 0 min 0,0 UV-I 51 W/m 25,7 km/h (4 Bft)
16.03.2013 17:48 6,2 C 4,6 C 50 % 1005,4 hPa 0,0 l/m 0 min 0 min 0,0 UV-I 49 W/m 36,0 km/h (5 Bft)
16.03.2013 17:50 6,1 C 4,6 C 50 % 1005,4 hPa 0,0 l/m 0 min 0 min 0,0 UV-I 44 W/m 28,3 km/h (4 Bft)
16.03.2013 17:52 6,1 C 4,6 C 50 % 1005,3 hPa 0,0 l/m 0 min 0 min 0,0 UV-I 42 W/m 28,3 km/h (4 Bft)
16.03.2013 17:54 6,1 C 4,6 C 50 % 1005,3 hPa 0,0 l/m 0 min 0 min 0,0 UV-I 39 W/m 30,9 km/h (5 Bft)
16.03.2013 17:56 6,1 C 4,6 C 50 % 1005,2 hPa 0,0 l/m 0 min 0 min 0,0 UV-I 35 W/m 23,2 km/h (4 Bft)
16.03.2013 17:58 6,1 C 4,6 C 50 % 1005,2 hPa 0,0 l/m 0 min 0 min 0,0 UV-I 33 W/m 38,6 km/h (5 Bft)
16.03.2013 18:00 6,0 C 4,6 C 49 % 1005,2 hPa 0,0 l/m 0 min 0 min 0,0 UV-I 32 W/m 28,3 km/h (4 Bft)
16.03.2013 18:02 6,0 C 4,0 C 49 % 1005,2 hPa 0,0 l/m 0 min 0 min 0,0 UV-I 26 W/m 30,9 km/h (5 Bft)
16.03.2013 18:04 6,0 C 4,0 C 50 % 1005,2 hPa 0,0 l/m 0 min 0 min 0,0 UV-I 25 W/m 23,2 km/h (4 Bft)
16.03.2013 18:06 5,9 C 4,0 C 50 % 1005,2 hPa 0,0 l/m 0 min 0 min 0,0 UV-I 23 W/m 28,3 km/h (4 Bft)
16.03.2013 18:08 5,9 C 4,0 C 50 % 1005,2 hPa 0,0 l/m 0 min 0 min 0,0 UV-I 19 W/m 28,3 km/h (4 Bft)
16.03.2013 18:10 5,9 C 4,0 C 50 % 1005,2 hPa 0,0 l/m 0 min 0 min 0,0 UV-I 18 W/m 30,9 km/h (5 Bft)
16.03.2013 18:12 5,9 C 4,0 C 50 % 1005,2 hPa 0,0 l/m 0 min 0 min 0,0 UV-I 16 W/m 25,7 km/h (4 Bft)
16.03.2013 18:14 5,9 C 4,0 C 50 % 1005,1 hPa 0,0 l/m 0 min 0 min 0,0 UV-I 12 W/m 23,2 km/h (4 Bft)
16.03.2013 18:16 5,8 C 4,0 C 50 % 1005,0 hPa 0,0 l/m 0 min 0 min 0,0 UV-I 12 W/m 38,6 km/h (5 Bft)
16.03.2013 18:18 5,8 C 4,0 C 50 % 1005,1 hPa 0,0 l/m 0 min 0 min 0,0 UV-I 11 W/m 28,3 km/h (4 Bft)
16.03.2013 18:20 5,8 C 4,0 C 50 % 1005,1 hPa 0,0 l/m 0 min 0 min 0,0 UV-I 9 W/m 23,2 km/h (4 Bft)
16.03.2013 18:22 5,8 C 4,0 C 50 % 1005,0 hPa 0,0 l/m 0 min 0 min 0,0 UV-I 9 W/m 18,0 km/h (3 Bft)
16.03.2013 18:24 5,8 C 4,0 C 50 % 1005,0 hPa 0,0 l/m 0 min 0 min 0,0 UV-I 7 W/m 28,3 km/h (4 Bft)
16.03.2013 18:26 5,8 C 4,0 C 50 % 1005,0 hPa 0,0 l/m 0 min 0 min 0,0 UV-I 7 W/m 25,7 km/h (4 Bft)
16.03.2013 18:28 5,7 C 4,0 C 50 % 1005,1 hPa 0,0 l/m 0 min 0 min 0,0 UV-I 5 W/m 28,3 km/h (4 Bft)
16.03.2013 18:30 5,7 C 4,0 C 50 % 1005,0 hPa 0,0 l/m 0 min 0 min 0,0 UV-I 5 W/m 25,7 km/h (4 Bft)
16.03.2013 18:32 5,7 C 4,0 C 50 % 1005,0 hPa 0,0 l/m 0 min 0 min 0,0 UV-I 0 W/m 30,9 km/h (5 Bft)
16.03.2013 18:34 5,7 C 4,0 C 50 % 1005,0 hPa 0,0 l/m 0 min 0 min 0,0 UV-I 0 W/m 28,3 km/h (4 Bft)
16.03.2013 18:36 5,7 C 4,0 C 50 % 1005,0 hPa 0,0 l/m 0 min 0 min 0,0 UV-I 0 W/m 28,3 km/h (4 Bft)
16.03.2013 18:38 5,7 C 4,0 C 50 % 1005,0 hPa 0,0 l/m 0 min 0 min 0,0 UV-I 0 W/m 23,2 km/h (4 Bft)
16.03.2013 18:40 5,7 C 4,0 C 50 % 1004,9 hPa 0,0 l/m 0 min 0 min 0,0 UV-I 0 W/m 20,6 km/h (4 Bft)
16.03.2013 18:42 5,7 C 4,0 C 50 % 1004,9 hPa 0,0 l/m 0 min 0 min 0,0 UV-I 0 W/m 36,0 km/h (5 Bft)
16.03.2013 18:44 5,7 C 4,0 C 50 % 1004,9 hPa 0,0 l/m 0 min 0 min 0,0 UV-I 0 W/m 28,3 km/h (4 Bft)
16.03.2013 18:46 5,7 C 4,0 C 50 % 1004,9 hPa 0,0 l/m 0 min 0 min 0,0 UV-I 0 W/m 23,2 km/h (4 Bft)
16.03.2013 18:48 5,6 C 4,0 C 51 % 1004,9 hPa 0,0 l/m 0 min 0 min 0,0 UV-I 0 W/m 33,5 km/h (5 Bft)
16.03.2013 18:50 5,6 C 4,0 C 50 % 1004,9 hPa 0,0 l/m 0 min 0 min 0,0 UV-I 0 W/m 33,5 km/h (5 Bft)
16.03.2013 18:52 5,6 C 4,0 C 51 % 1004,9 hPa 0,0 l/m 0 min 0 min 0,0 UV-I 0 W/m 25,7 km/h (4 Bft)
16.03.2013 18:54 5,6 C 4,0 C 51 % 1004,9 hPa 0,0 l/m 0 min 0 min 0,0 UV-I 0 W/m 25,7 km/h (4 Bft)
16.03.2013 18:56 5,6 C 4,0 C 50 % 1004,9 hPa 0,0 l/m 0 min 0 min 0,0 UV-I 0 W/m 36,0 km/h (5 Bft)
16.03.2013 18:58 5,6 C 4,0 C 51 % 1004,9 hPa 0,0 l/m 0 min 0 min 0,0 UV-I 0 W/m 30,9 km/h (5 Bft)
16.03.2013 19:00 5,6 C 3,4 C 51 % 1004,8 hPa 0,0 l/m 0 min 0 min 0,0 UV-I 0 W/m 46,3 km/h (6 Bft)
16.03.2013 19:02 5,6 C 3,4 C 51 % 1004,9 hPa 0,0 l/m 0 min 0 min 0,0 UV-I 0 W/m 23,2 km/h (4 Bft)
16.03.2013 19:04 5,6 C 3,4 C 51 % 1004,8 hPa 0,0 l/m 0 min 0 min 0,0 UV-I 0 W/m 23,2 km/h (4 Bft)
16.03.2013 19:06 5,6 C 3,4 C 51 % 1004,8 hPa 0,0 l/m 0 min 0 min 0,0 UV-I 0 W/m 25,7 km/h (4 Bft)
16.03.2013 19:08 5,6 C 3,4 C 51 % 1004,9 hPa 0,0 l/m 0 min 0 min 0,0 UV-I 0 W/m 28,3 km/h (4 Bft)
16.03.2013 19:10 5,5 C 3,4 C 52 % 1004,8 hPa 0,0 l/m 0 min 0 min 0,0 UV-I 0 W/m 20,6 km/h (4 Bft)
16.03.2013 19:12 5,5 C 3,4 C 52 % 1004,9 hPa 0,0 l/m 0 min 0 min 0,0 UV-I 0 W/m 25,7 km/h (4 Bft)
16.03.2013 19:14 5,4 C 3,4 C 52 % 1004,9 hPa 0,0 l/m 0 min 0 min 0,0 UV-I 0 W/m 33,5 km/h (5 Bft)
16.03.2013 19:16 5,4 C 3,4 C 52 % 1004,8 hPa 0,0 l/m 0 min 0 min 0,0 UV-I 0 W/m 20,6 km/h (4 Bft)
16.03.2013 19:18 5,4 C 3,4 C 52 % 1004,8 hPa 0,0 l/m 0 min 0 min 0,0 UV-I 0 W/m 25,7 km/h (4 Bft)
16.03.2013 19:20 5,4 C 3,4 C 53 % 1004,8 hPa 0,0 l/m 0 min 0 min 0,0 UV-I 0 W/m 20,6 km/h (4 Bft)
16.03.2013 19:22 5,4 C 3,4 C 53 % 1004,8 hPa 0,0 l/m 0 min 0 min 0,0 UV-I 0 W/m 23,2 km/h (4 Bft)
16.03.2013 19:24 5,4 C 3,4 C 53 % 1004,7 hPa 0,0 l/m 0 min 0 min 0,0 UV-I 0 W/m 20,6 km/h (4 Bft)
16.03.2013 19:26 5,4 C 3,4 C 53 % 1004,7 hPa 0,0 l/m 0 min 0 min 0,0 UV-I 0 W/m 28,3 km/h (4 Bft)
16.03.2013 19:28 5,3 C 3,4 C 53 % 1004,7 hPa 0,0 l/m 0 min 0 min 0,0 UV-I 0 W/m 23,2 km/h (4 Bft)
16.03.2013 19:30 5,3 C 3,4 C 53 % 1004,7 hPa 0,0 l/m 0 min 0 min 0,0 UV-I 0 W/m 23,2 km/h (4 Bft)
16.03.2013 19:32 5,3 C 3,4 C 53 % 1004,7 hPa 0,0 l/m 0 min 0 min 0,0 UV-I 0 W/m 30,9 km/h (5 Bft)
16.03.2013 19:34 5,3 C 3,4 C 54 % 1004,6 hPa 0,0 l/m 0 min 0 min 0,0 UV-I 0 W/m 12,9 km/h (3 Bft)
16.03.2013 19:36 5,3 C 3,4 C 53 % 1004,7 hPa 0,0 l/m 0 min 0 min 0,0 UV-I 0 W/m 20,6 km/h (4 Bft)
16.03.2013 19:38 5,3 C 3,4 C 53 % 1004,6 hPa 0,0 l/m 0 min 0 min 0,0 UV-I 0 W/m 18,0 km/h (3 Bft)
16.03.2013 19:40 5,3 C 3,4 C 54 % 1004,5 hPa 0,0 l/m 0 min 0 min 0,0 UV-I 0 W/m 18,0 km/h (3 Bft)
16.03.2013 19:42 5,3 C 3,4 C 54 % 1004,6 hPa 0,0 l/m 0 min 0 min 0,0 UV-I 0 W/m 23,2 km/h (4 Bft)
16.03.2013 19:44 5,3 C 3,4 C 54 % 1004,6 hPa 0,0 l/m 0 min 0 min 0,0 UV-I 0 W/m 25,7 km/h (4 Bft)
16.03.2013 19:46 5,2 C 3,4 C 54 % 1004,5 hPa 0,0 l/m 0 min 0 min 0,0 UV-I 0 W/m 33,5 km/h (5 Bft)
16.03.2013 19:48 5,2 C 3,4 C 54 % 1004,5 hPa 0,0 l/m 0 min 0 min 0,0 UV-I 0 W/m 23,2 km/h (4 Bft)
16.03.2013 19:50 5,2 C 3,4 C 54 % 1004,5 hPa 0,0 l/m 0 min 0 min 0,0 UV-I 0 W/m 12,9 km/h (3 Bft)
16.03.2013 19:52 5,2 C 3,4 C 54 % 1004,5 hPa 0,0 l/m 0 min 0 min 0,0 UV-I 0 W/m 20,6 km/h (4 Bft)
16.03.2013 19:54 5,2 C 3,4 C 54 % 1004,5 hPa 0,0 l/m 0 min 0 min 0,0 UV-I 0 W/m 25,7 km/h (4 Bft)
16.03.2013 19:56 5,2 C 3,4 C 54 % 1004,4 hPa 0,0 l/m 0 min 0 min 0,0 UV-I 0 W/m 23,2 km/h (4 Bft)
16.03.2013 19:58 5,2 C 3,4 C 54 % 1004,4 hPa 0,0 l/m 0 min 0 min 0,0 UV-I 0 W/m 15,4 km/h (3 Bft)
16.03.2013 20:00 5,2 C 2,9 C 54 % 1004,3 hPa 0,0 l/m 0 min 0 min 0,0 UV-I 0 W/m 20,6 km/h (4 Bft)
16.03.2013 20:02 5,1 C 2,9 C 54 % 1004,2 hPa 0,0 l/m 0 min 0 min 0,0 UV-I 0 W/m 48,9 km/h (6 Bft)
16.03.2013 20:04 5,1 C 2,9 C 55 % 1004,1 hPa 0,0 l/m 0 min 0 min 0,0 UV-I 0 W/m 28,3 km/h (4 Bft)
16.03.2013 20:06 5,1 C 2,9 C 55 % 1004,2 hPa 0,0 l/m 0 min 0 min 0,0 UV-I 0 W/m 28,3 km/h (4 Bft)
16.03.2013 20:08 5,1 C 2,9 C 54 % 1004,1 hPa 0,0 l/m 0 min 0 min 0,0 UV-I 0 W/m 20,6 km/h (4 Bft)
16.03.2013 20:10 5,1 C 2,9 C 55 % 1004,2 hPa 0,0 l/m 0 min 0 min 0,0 UV-I 0 W/m 15,4 km/h (3 Bft)
16.03.2013 20:12 5,0 C 2,9 C 55 % 1004,2 hPa 0,0 l/m 0 min 0 min 0,0 UV-I 0 W/m 20,6 km/h (4 Bft)
16.03.2013 20:14 5,0 C 2,9 C 55 % 1004,1 hPa 0,0 l/m 0 min 0 min 0,0 UV-I 0 W/m 23,2 km/h (4 Bft)
16.03.2013 20:16 5,0 C 2,9 C 55 % 1004,1 hPa 0,0 l/m 0 min 0 min 0,0 UV-I 0 W/m 18,0 km/h (3 Bft)
16.03.2013 20:18 4,9 C 2,9 C 55 % 1004,2 hPa 0,0 l/m 0 min 0 min 0,0 UV-I 0 W/m 20,6 km/h (4 Bft)
16.03.2013 20:20 4,9 C 2,9 C 55 % 1004,2 hPa 0,0 l/m 0 min 0 min 0,0 UV-I 0 W/m 28,3 km/h (4 Bft)
16.03.2013 20:22 4,9 C 2,9 C 55 % 1004,1 hPa 0,0 l/m 0 min 0 min 0,0 UV-I 0 W/m 18,0 km/h (3 Bft)
16.03.2013 20:24 4,9 C 2,9 C 55 % 1004,1 hPa 0,0 l/m 0 min 0 min 0,0 UV-I 0 W/m 20,6 km/h (4 Bft)
16.03.2013 20:26 4,8 C 2,9 C 55 % 1004,1 hPa 0,0 l/m 0 min 0 min 0,0 UV-I 0 W/m 18,0 km/h (3 Bft)
16.03.2013 20:28 4,8 C 2,9 C 55 % 1004,1 hPa 0,0 l/m 0 min 0 min 0,0 UV-I 0 W/m 25,7 km/h (4 Bft)
16.03.2013 20:30 4,8 C 2,9 C 55 % 1004,0 hPa 0,0 l/m 0 min 0 min 0,0 UV-I 0 W/m 20,6 km/h (4 Bft)
16.03.2013 20:32 4,8 C 2,9 C 55 % 1004,0 hPa 0,0 l/m 0 min 0 min 0,0 UV-I 0 W/m 23,2 km/h (4 Bft)
16.03.2013 20:34 4,8 C 2,9 C 55 % 1004,0 hPa 0,0 l/m 0 min 0 min 0,0 UV-I 0 W/m 20,6 km/h (4 Bft)
16.03.2013 20:36 4,8 C 2,9 C 55 % 1004,0 hPa 0,0 l/m 0 min 0 min 0,0 UV-I 0 W/m 15,4 km/h (3 Bft)
16.03.2013 20:38 4,8 C 2,9 C 55 % 1003,9 hPa 0,0 l/m 0 min 0 min 0,0 UV-I 0 W/m 28,3 km/h (4 Bft)
16.03.2013 20:40 4,8 C 2,9 C 55 % 1004,0 hPa 0,0 l/m 0 min 0 min 0,0 UV-I 0 W/m 28,3 km/h (4 Bft)
16.03.2013 20:42 4,8 C 2,9 C 55 % 1003,9 hPa 0,0 l/m 0 min 0 min 0,0 UV-I 0 W/m 30,9 km/h (5 Bft)
16.03.2013 20:44 4,8 C 2,9 C 55 % 1003,8 hPa 0,0 l/m 0 min 0 min 0,0 UV-I 0 W/m 20,6 km/h (4 Bft)
16.03.2013 20:46 4,8 C 2,9 C 55 % 1003,8 hPa 0,0 l/m 0 min 0 min 0,0 UV-I 0 W/m 33,5 km/h (5 Bft)
16.03.2013 20:48 4,8 C 2,9 C 55 % 1003,8 hPa 0,0 l/m 0 min 0 min 0,0 UV-I 0 W/m 28,3 km/h (4 Bft)
16.03.2013 20:50 4,8 C 2,9 C 55 % 1003,8 hPa 0,0 l/m 0 min 0 min 0,0 UV-I 0 W/m 28,3 km/h (4 Bft)
16.03.2013 20:52 4,8 C 2,9 C 55 % 1003,8 hPa 0,0 l/m 0 min 0 min 0,0 UV-I 0 W/m 30,9 km/h (5 Bft)
16.03.2013 20:54 4,8 C 2,9 C 55 % 1003,8 hPa 0,0 l/m 0 min 0 min 0,0 UV-I 0 W/m 36,0 km/h (5 Bft)
16.03.2013 20:56 4,8 C 2,9 C 55 % 1003,7 hPa 0,0 l/m 0 min 0 min 0,0 UV-I 0 W/m 28,3 km/h (4 Bft)
16.03.2013 20:58 4,8 C 2,9 C 55 % 1003,8 hPa 0,0 l/m 0 min 0 min 0,0 UV-I 0 W/m 28,3 km/h (4 Bft)
16.03.2013 21:00 4,8 C 2,9 C 55 % 1003,7 hPa 0,0 l/m 0 min 0 min 0,0 UV-I 0 W/m 20,6 km/h (4 Bft)
16.03.2013 21:02 4,8 C 2,9 C 55 % 1003,8 hPa 0,0 l/m 0 min 0 min 0,0 UV-I 0 W/m 33,5 km/h (5 Bft)
16.03.2013 21:04 4,8 C 2,9 C 55 % 1003,8 hPa 0,0 l/m 0 min 0 min 0,0 UV-I 0 W/m 25,7 km/h (4 Bft)
16.03.2013 21:06 4,8 C 2,9 C 56 % 1003,8 hPa 0,0 l/m 0 min 0 min 0,0 UV-I 0 W/m 28,3 km/h (4 Bft)
16.03.2013 21:08 4,8 C 2,9 C 56 % 1003,9 hPa 0,0 l/m 0 min 0 min 0,0 UV-I 0 W/m 25,7 km/h (4 Bft)
16.03.2013 21:10 4,8 C 2,9 C 56 % 1003,8 hPa 0,0 l/m 0 min 0 min 0,0 UV-I 0 W/m 30,9 km/h (5 Bft)
16.03.2013 21:12 4,8 C 2,9 C 56 % 1003,8 hPa 0,0 l/m 0 min 0 min 0,0 UV-I 0 W/m 18,0 km/h (3 Bft)
16.03.2013 21:14 4,8 C 2,9 C 56 % 1003,8 hPa 0,0 l/m 0 min 0 min 0,0 UV-I 0 W/m 25,7 km/h (4 Bft)
16.03.2013 21:16 4,8 C 2,9 C 56 % 1003,9 hPa 0,0 l/m 0 min 0 min 0,0 UV-I 0 W/m 15,4 km/h (3 Bft)
16.03.2013 21:18 4,8 C 2,9 C 57 % 1003,9 hPa 0,0 l/m 0 min 0 min 0,0 UV-I 0 W/m 25,7 km/h (4 Bft)
16.03.2013 21:20 4,7 C 2,9 C 57 % 1003,9 hPa 0,0 l/m 0 min 0 min 0,0 UV-I 0 W/m 18,0 km/h (3 Bft)
16.03.2013 21:22 4,7 C 2,9 C 56 % 1003,9 hPa 0,0 l/m 0 min 0 min 0,0 UV-I 0 W/m 28,3 km/h (4 Bft)
16.03.2013 21:24 4,7 C 2,9 C 57 % 1003,8 hPa 0,0 l/m 0 min 0 min 0,0 UV-I 0 W/m 23,2 km/h (4 Bft)
16.03.2013 21:26 4,7 C 2,9 C 57 % 1003,8 hPa 0,0 l/m 0 min 0 min 0,0 UV-I 0 W/m 18,0 km/h (3 Bft)
16.03.2013 21:28 4,7 C 2,9 C 57 % 1003,8 hPa 0,0 l/m 0 min 0 min 0,0 UV-I 0 W/m 23,2 km/h (4 Bft)
16.03.2013 21:30 4,7 C 2,9 C 57 % 1003,8 hPa 0,0 l/m 0 min 0 min 0,0 UV-I 0 W/m 33,5 km/h (5 Bft)
16.03.2013 21:32 4,7 C 2,9 C 57 % 1003,9 hPa 0,0 l/m 0 min 0 min 0,0 UV-I 0 W/m 23,2 km/h (4 Bft)
16.03.2013 21:34 4,7 C 2,9 C 57 % 1003,8 hPa 0,0 l/m 0 min 0 min 0,0 UV-I 0 W/m 23,2 km/h (4 Bft)
16.03.2013 21:36 4,7 C 2,9 C 57 % 1003,9 hPa 0,0 l/m 0 min 0 min 0,0 UV-I 0 W/m 28,3 km/h (4 Bft)
16.03.2013 21:38 4,7 C 2,9 C 57 % 1003,8 hPa 0,0 l/m 0 min 0 min 0,0 UV-I 0 W/m 30,9 km/h (5 Bft)
16.03.2013 21:40 4,7 C 2,9 C 57 % 1003,8 hPa 0,0 l/m 0 min 0 min 0,0 UV-I 0 W/m 18,0 km/h (3 Bft)
16.03.2013 21:42 4,7 C 2,9 C 58 % 1003,7 hPa 0,0 l/m 0 min 0 min 0,0 UV-I 0 W/m 28,3 km/h (4 Bft)
16.03.2013 21:44 4,7 C 2,9 C 58 % 1003,7 hPa 0,0 l/m 0 min 0 min 0,0 UV-I 0 W/m 36,0 km/h (5 Bft)
16.03.2013 21:46 4,7 C 2,9 C 58 % 1003,8 hPa 0,0 l/m 0 min 0 min 0,0 UV-I 0 W/m 36,0 km/h (5 Bft)
16.03.2013 21:48 4,7 C 2,9 C 58 % 1003,7 hPa 0,0 l/m 0 min 0 min 0,0 UV-I 0 W/m 25,7 km/h (4 Bft)
16.03.2013 21:50 4,7 C 2,9 C 58 % 1003,8 hPa 0,0 l/m 0 min 0 min 0,0 UV-I 0 W/m 30,9 km/h (5 Bft)
16.03.2013 21:52 4,7 C 2,9 C 58 % 1003,7 hPa 0,0 l/m 0 min 0 min 0,0 UV-I 0 W/m 28,3 km/h (4 Bft)
16.03.2013 21:54 4,7 C 2,9 C 58 % 1003,7 hPa 0,0 l/m 0 min 0 min 0,0 UV-I 0 W/m 20,6 km/h (4 Bft)
16.03.2013 21:56 4,7 C 2,9 C 58 % 1003,7 hPa 0,0 l/m 0 min 0 min 0,0 UV-I 0 W/m 18,0 km/h (3 Bft)
16.03.2013 21:58 4,7 C 2,9 C 58 % 1003,8 hPa 0,0 l/m 0 min 0 min 0,0 UV-I 0 W/m 25,7 km/h (4 Bft)
16.03.2013 22:00 4,7 C 2,9 C 58 % 1003,8 hPa 0,0 l/m 0 min 0 min 0,0 UV-I 0 W/m 23,2 km/h (4 Bft)
16.03.2013 22:02 4,7 C 2,9 C 58 % 1003,8 hPa 0,0 l/m 0 min 0 min 0,0 UV-I 0 W/m 28,3 km/h (4 Bft)
16.03.2013 22:04 4,7 C 2,9 C 58 % 1003,8 hPa 0,0 l/m 0 min 0 min 0,0 UV-I 0 W/m 23,2 km/h (4 Bft)
16.03.2013 22:06 4,7 C 2,9 C 58 % 1003,7 hPa 0,0 l/m 0 min 0 min 0,0 UV-I 0 W/m 12,9 km/h (3 Bft)
16.03.2013 22:08 4,7 C 2,9 C 58 % 1003,8 hPa 0,0 l/m 0 min 0 min 0,0 UV-I 0 W/m 20,6 km/h (4 Bft)
16.03.2013 22:10 4,8 C 2,9 C 58 % 1003,8 hPa 0,0 l/m 0 min 0 min 0,0 UV-I 0 W/m 25,7 km/h (4 Bft)
16.03.2013 22:12 4,8 C 3,4 C 58 % 1003,8 hPa 0,0 l/m 0 min 0 min 0,0 UV-I 0 W/m 25,7 km/h (4 Bft)
16.03.2013 22:14 4,8 C 3,4 C 58 % 1003,9 hPa 0,0 l/m 0 min 0 min 0,0 UV-I 0 W/m 18,0 km/h (3 Bft)
16.03.2013 22:16 4,8 C 2,9 C 58 % 1003,9 hPa 0,0 l/m 0 min 0 min 0,0 UV-I 0 W/m 18,0 km/h (3 Bft)
16.03.2013 22:18 4,8 C 3,4 C 58 % 1003,9 hPa 0,0 l/m 0 min 0 min 0,0 UV-I 0 W/m 23,2 km/h (4 Bft)
16.03.2013 22:20 4,8 C 3,4 C 59 % 1003,9 hPa 0,0 l/m 0 min 0 min 0,0 UV-I 0 W/m 28,3 km/h (4 Bft)
16.03.2013 22:22 4,8 C 3,4 C 58 % 1003,9 hPa 0,0 l/m 0 min 0 min 0,0 UV-I 0 W/m 28,3 km/h (4 Bft)
16.03.2013 22:24 4,8 C 3,4 C 58 % 1003,9 hPa 0,0 l/m 0 min 0 min 0,0 UV-I 0 W/m 28,3 km/h (4 Bft)
16.03.2013 22:26 4,8 C 3,4 C 58 % 1003,9 hPa 0,0 l/m 0 min 0 min 0,0 UV-I 0 W/m 23,2 km/h (4 Bft)
16.03.2013 22:28 4,8 C 3,4 C 58 % 1003,9 hPa 0,0 l/m 0 min 0 min 0,0 UV-I 0 W/m 15,4 km/h (3 Bft)
16.03.2013 22:30 4,9 C 3,4 C 58 % 1003,9 hPa 0,0 l/m 0 min 0 min 0,0 UV-I 0 W/m 20,6 km/h (4 Bft)
16.03.2013 22:32 4,9 C 3,4 C 58 % 1004,0 hPa 0,0 l/m 0 min 0 min 0,0 UV-I 0 W/m 18,0 km/h (3 Bft)
16.03.2013 22:34 4,9 C 3,4 C 58 % 1003,9 hPa 0,0 l/m 0 min 0 min 0,0 UV-I 0 W/m 18,0 km/h (3 Bft)
16.03.2013 22:36 4,9 C 3,4 C 58 % 1004,0 hPa 0,0 l/m 0 min 0 min 0,0 UV-I 0 W/m 25,7 km/h (4 Bft)
16.03.2013 22:38 4,9 C 3,4 C 58 % 1003,9 hPa 0,0 l/m 0 min 0 min 0,0 UV-I 0 W/m 18,0 km/h (3 Bft)
16.03.2013 22:40 4,9 C 3,4 C 58 % 1004,0 hPa 0,0 l/m 0 min 0 min 0,0 UV-I 0 W/m 30,9 km/h (5 Bft)
16.03.2013 22:42 4,9 C 3,4 C 58 % 1003,9 hPa 0,0 l/m 0 min 0 min 0,0 UV-I 0 W/m 25,7 km/h (4 Bft)
16.03.2013 22:44 4,9 C 3,4 C 58 % 1003,9 hPa 0,0 l/m 0 min 0 min 0,0 UV-I 0 W/m 28,3 km/h (4 Bft)
16.03.2013 22:46 5,0 C 3,4 C 58 % 1003,9 hPa 0,0 l/m 0 min 0 min 0,0 UV-I 0 W/m 28,3 km/h (4 Bft)
16.03.2013 22:48 5,0 C 3,4 C 58 % 1003,9 hPa 0,0 l/m 0 min 0 min 0,0 UV-I 0 W/m 23,2 km/h (4 Bft)
16.03.2013 22:50 5,0 C 3,4 C 58 % 1003,9 hPa 0,0 l/m 0 min 0 min 0,0 UV-I 0 W/m 25,7 km/h (4 Bft)
16.03.2013 22:52 5,0 C 3,4 C 58 % 1004,0 hPa 0,0 l/m 0 min 0 min 0,0 UV-I 0 W/m 23,2 km/h (4 Bft)
16.03.2013 22:54 5,0 C 3,4 C 58 % 1004,0 hPa 0,0 l/m 0 min 0 min 0,0 UV-I 0 W/m 30,9 km/h (5 Bft)
16.03.2013 22:56 5,0 C 3,4 C 58 % 1004,0 hPa 0,0 l/m 0 min 0 min 0,0 UV-I 0 W/m 25,7 km/h (4 Bft)
16.03.2013 22:58 5,0 C 3,4 C 58 % 1004,0 hPa 0,0 l/m 0 min 0 min 0,0 UV-I 0 W/m 20,6 km/h (4 Bft)
16.03.2013 23:00 5,0 C 3,4 C 58 % 1004,0 hPa 0,0 l/m 0 min 0 min 0,0 UV-I 0 W/m 18,0 km/h (3 Bft)
16.03.2013 23:02 5,0 C 3,4 C 58 % 1004,0 hPa 0,0 l/m 0 min 0 min 0,0 UV-I 0 W/m 15,4 km/h (3 Bft)
16.03.2013 23:04 5,0 C 3,4 C 58 % 1004,0 hPa 0,0 l/m 0 min 0 min 0,0 UV-I 0 W/m 20,6 km/h (4 Bft)
16.03.2013 23:06 5,0 C 3,4 C 58 % 1003,9 hPa 0,0 l/m 0 min 0 min 0,0 UV-I 0 W/m 20,6 km/h (4 Bft)
16.03.2013 23:08 5,1 C 3,4 C 58 % 1003,9 hPa 0,0 l/m 0 min 0 min 0,0 UV-I 0 W/m 15,4 km/h (3 Bft)
16.03.2013 23:10 5,1 C 3,4 C 58 % 1004,0 hPa 0,0 l/m 0 min 0 min 0,0 UV-I 0 W/m 25,7 km/h (4 Bft)
16.03.2013 23:12 5,1 C 3,4 C 58 % 1003,9 hPa 0,0 l/m 0 min 0 min 0,0 UV-I 0 W/m 18,0 km/h (3 Bft)
16.03.2013 23:14 5,1 C 3,4 C 58 % 1003,9 hPa 0,0 l/m 0 min 0 min 0,0 UV-I 0 W/m 12,9 km/h (3 Bft)
16.03.2013 23:16 5,1 C 3,4 C 58 % 1003,9 hPa 0,0 l/m 0 min 0 min 0,0 UV-I 0 W/m 20,6 km/h (4 Bft)
16.03.2013 23:18 5,1 C 3,4 C 58 % 1003,8 hPa 0,0 l/m 0 min 0 min 0,0 UV-I 0 W/m 28,3 km/h (4 Bft)
16.03.2013 23:20 5,1 C 3,4 C 58 % 1003,8 hPa 0,0 l/m 0 min 0 min 0,0 UV-I 0 W/m 20,6 km/h (4 Bft)
16.03.2013 23:22 5,1 C 3,4 C 58 % 1003,8 hPa 0,0 l/m 0 min 0 min 0,0 UV-I 0 W/m 18,0 km/h (3 Bft)
16.03.2013 23:24 5,1 C 3,4 C 58 % 1003,7 hPa 0,0 l/m 0 min 0 min 0,0 UV-I 0 W/m 23,2 km/h (4 Bft)
16.03.2013 23:26 5,1 C 3,4 C 58 % 1003,8 hPa 0,0 l/m 0 min 0 min 0,0 UV-I 0 W/m 23,2 km/h (4 Bft)
16.03.2013 23:28 5,1 C 3,4 C 58 % 1003,7 hPa 0,0 l/m 0 min 0 min 0,0 UV-I 0 W/m 18,0 km/h (3 Bft)
16.03.2013 23:30 5,1 C 3,4 C 58 % 1003,7 hPa 0,0 l/m 0 min 0 min 0,0 UV-I 0 W/m 10,3 km/h (2 Bft)
16.03.2013 23:32 5,1 C 3,4 C 58 % 1003,7 hPa 0,0 l/m 0 min 0 min 0,0 UV-I 0 W/m 18,0 km/h (3 Bft)
16.03.2013 23:34 5,1 C 3,4 C 58 % 1003,6 hPa 0,0 l/m 0 min 0 min 0,0 UV-I 0 W/m 12,9 km/h (3 Bft)
16.03.2013 23:36 5,1 C 3,4 C 58 % 1003,6 hPa 0,0 l/m 0 min 0 min 0,0 UV-I 0 W/m 12,9 km/h (3 Bft)
16.03.2013 23:38 5,1 C 3,4 C 58 % 1003,6 hPa 0,0 l/m 0 min 0 min 0,0 UV-I 0 W/m 12,9 km/h (3 Bft)
16.03.2013 23:40 5,1 C 3,4 C 58 % 1003,6 hPa 0,0 l/m 0 min 0 min 0,0 UV-I 0 W/m 20,6 km/h (4 Bft)
16.03.2013 23:42 5,1 C 3,4 C 58 % 1003,6 hPa 0,0 l/m 0 min 0 min 0,0 UV-I 0 W/m 30,9 km/h (5 Bft)
16.03.2013 23:44 5,1 C 3,4 C 58 % 1003,5 hPa 0,0 l/m 0 min 0 min 0,0 UV-I 0 W/m 20,6 km/h (4 Bft)
16.03.2013 23:46 5,1 C 3,4 C 58 % 1003,5 hPa 0,0 l/m 0 min 0 min 0,0 UV-I 0 W/m 12,9 km/h (3 Bft)
16.03.2013 23:48 5,1 C 3,4 C 59 % 1003,4 hPa 0,0 l/m 0 min 0 min 0,0 UV-I 0 W/m 15,4 km/h (3 Bft)
16.03.2013 23:50 5,1 C 3,4 C 59 % 1003,5 hPa 0,0 l/m 0 min 0 min 0,0 UV-I 0 W/m 20,6 km/h (4 Bft)
16.03.2013 23:52 5,1 C 3,4 C 59 % 1003,5 hPa 0,0 l/m 0 min 0 min 0,0 UV-I 0 W/m 12,9 km/h (3 Bft)
16.03.2013 23:54 5,1 C 3,4 C 59 % 1003,5 hPa 0,0 l/m 0 min 0 min 0,0 UV-I 0 W/m 20,6 km/h (4 Bft)
16.03.2013 23:56 5,1 C 3,4 C 59 % 1003,5 hPa 0,0 l/m 0 min 0 min 0,0 UV-I 0 W/m 20,6 km/h (4 Bft)
16.03.2013 23:58 5,1 C 3,4 C 59 % 1003,5 hPa 0,0 l/m 0 min 0 min 0,0 UV-I 0 W/m 15,4 km/h (3 Bft)
_ Min-Zeit 07:06 06:58 17:00 23:48 - - - - - 01:16
Minimum _ 1,3 C -0,4 C 48 % 1003,4 hPa - - - - - 0,0 km/h (0 Bft)
_ Max-Zeit 14:00 13:16 02:44 00:00 00:00 10:48 00:00 13:36 13:36 16:22
Maximum _ 8,1 C 7,9 C 84 % 1012,7 hPa 0,0 l/m 2 min 0 min 1,2 UV-I 587 W/m 56,6 km/h
SO (7 Bft)
Durchschnitt _ 4,2 C 3,0 C 65 % 1008,4 hPa #0,0 l/m #2:46 h #0 min. 0,8 UV-I 197 W/m 23,2 km/h (4 Bft)
© 2013 W. Hausmann